           , 2.025,  2.175,  2.325,  2.475,  2.625,  2.775,  2.925,  3.075,  3.225,  3.375,  3.525,  3.675,  3.825,  3.975,  4.125,  4.275,  4.425,  4.575,  4.725,  4.875,  5.025,  5.175,  5.325,  5.475,  5.625,  5.775,  5.925,  6.075,  6.225,  6.375,  6.525,  6.675,  6.825,  6.975,  7.125,  7.275,  7.425,  7.575,  7.725,  7.875,  8.025,  8.175,  8.325,  8.475,  8.625,  8.775,  8.925,  9.075,  9.225,  9.375,  9.525,  9.675,  9.825,  9.975, 10.125, 10.275, 10.425, 10.575, 10.725, 10.875, 11.025, 11.175, 11.325, 11.475, 11.625, 11.775, 11.925, 12.075, 12.225, 12.375, 12.525, 12.675, 12.825, 12.975, 13.125, 13.275, 13.425, 13.575, 13.725, 13.875, 14.025, 14.175, 14.325, 14.475, 14.625, 14.775, 14.925, 15.075, 15.225, 15.375, 15.525, 15.675, 15.825, 15.975, 16.125, 16.275, 16.425, 16.575, 16.725, 16.875, 17.025, 17.175, 17.325, 17.475, 17.625, 17.775, 17.925, 18.075, 18.225, 18.375, 18.525, 18.675, 18.825, 18.975, 19.125, 19.275, 19.425, 19.575, 19.725, 19.875
2003/10/17 00:05,    0.4,    0.8,    0.8,    0.7,    0.6,   -0.0,    0.2,    0.2,    0.0,   -0.1,   -0.0,   -0.1,   -0.2,   -0.2,   -0.3,   -0.4,   -0.3,   -0.2,   -0.5,   -0.3,   -0.4,   -0.3,   -0.4,   -0.5,   -0.5,   -0.5,   -0.6,   -0.5,   -0.4,   -0.5,   -0.5,   -0.4,   -0.4,   -0.4,   -0.7,   -0.7,   -0.5,   -0.4,   -0.6,   -0.5,   -0.6,   -0.5,   -0.2,   -0.6,   -0.5,   -0.7,   -0.6,   -0.6,   -0.6,   -0.4,   -0.7,   -0.9,   -0.8,   -0.7,   -0.5,   -0.4,   -0.8,   -0.2,   -0.6,   -0.5,   -0.6,   -0.6,   -0.6,   -0.8,   -0.6,   -0.6,   -0.6,   -0.6,   -1.0,   -0.9,   -0.1,   -0.6,   -0.6,   -0.3,   -0.4,   -0.3,    0.4,   -0.2,   -0.0,   -0.1,   -0.2,   -0.2,   -0.3,   -0.4,   -0.6,   -0.6,    1.9,   -0.8,   -0.6,   -0.5,  999.0,    3.5,  999.0,  999.0,    0.2,   -0.6,   -0.5,   -0.5,   -0.6,   -0.7,   -0.9,    0.7,   -0.7,   -0.2,   -0.6,   -0.4,   -0.4,   -0.3,   -0.3,   -0.2,   -0.3,   -0.2,   -0.6,   -0.4,   -0.2,   -0.3,   -0.2,   -0.2,   -0.4,    1.9
2003/10/17 00:15,   -0.0,    0.2,    0.3,    0.3,    0.3,    0.2,    0.2,    0.1,    0.0,   -0.1,   -0.2,   -0.1,   -0.2,   -0.2,   -0.3,   -0.2,   -0.2,   -0.2,   -0.3,   -0.3,   -0.2,   -0.3,   -0.4,   -0.3,   -0.4,   -0.5,   -0.4,   -0.3,   -0.3,   -0.3,   -0.3,   -0.2,   -0.2,   -0.4,   -0.5,   -0.5,   -0.3,   -0.3,   -0.5,   -0.5,   -0.6,   -0.2,   -0.5,   -0.6,   -0.6,   -0.7,   -0.7,   -0.6,   -0.7,   -0.5,   -0.8,   -0.5,   -0.5,   -0.8,   -0.7,   -0.4,   -0.7,   -0.3,   -0.6,   -0.5,   -0.5,   -0.6,   -0.8,   -0.8,   -0.8,   -0.6,   -0.7,   -0.6,   -0.6,   -0.2,  999.0,   -0.4,   -0.4,   -0.7,   -0.0,   -0.3,  999.0,    0.3,    0.2,    0.1,    0.1,   -0.0,   -0.2,   -0.2,   -0.7,   -0.6,    0.1,   -0.4,   -0.6,   -0.5,   -0.3,  999.0,  999.0,  999.0,    3.1,   -1.2,   -1.0,   -1.1,   -0.9,   -0.8,   -0.9,   -1.0,   -1.0,   -0.4,   -0.4,   -0.6,   -0.5,   -0.3,   -0.4,   -0.2,   -0.1,   -0.3,   -0.4,   -0.1,    0.2,    0.2,    0.8,    0.7,    0.2,    0.4
2003/10/17 00:25,   -0.1,   -0.0,   -0.0,    0.0,    0.1,    0.1,    0.0,    0.0,    0.2,    0.1,    0.3,    0.3,    0.2,    0.4,    0.4,    0.4,    0.4,    0.2,    0.1,    0.1,    0.0,   -0.0,    0.1,    0.1,    0.1,    0.1,    0.1,    0.2,    0.1,    0.0,    0.0,   -0.0,    0.0,   -0.0,   -0.2,   -0.3,   -0.2,   -0.2,   -0.3,   -0.4,   -0.5,   -0.2,   -0.3,   -0.4,   -0.4,   -0.6,   -0.5,   -0.6,   -0.7,   -0.7,   -0.8,   -0.8,   -0.6,   -0.9,   -0.4,   -0.4,   -0.5,   -0.4,   -0.7,   -0.5,   -0.6,   -0.6,   -0.8,   -1.0,   -0.8,   -1.0,   -0.8,   -0.8,   -0.7,  999.0,   -0.2,   -0.6,   -0.6,   -0.6,   -0.1,   -0.2,    0.0,    0.0,    0.1,    0.0,   -0.0,   -0.2,   -0.3,   -0.4,   -0.9,   -0.8,  999.0,   -0.9,   -1.0,   -0.9,   -0.6,  999.0,  999.0,  999.0,  999.0,   -1.0,   -1.2,   -1.4,   -1.3,   -1.2,   -1.3,   -1.3,   -0.9,   -0.6,   -0.9,   -0.4,   -0.7,   -0.5,   -0.6,   -0.6,   -0.7,   -0.8,   -0.7,   -0.3,   -0.4,   -0.3,    0.2,    0.2,    0.1,    0.1
2003/10/17 00:35,   -0.0,   -0.0,    0.1,    0.3,    0.4,   -0.0,    0.2,    0.2,    0.1,    0.1,    0.0,    0.2,    0.2,    0.2,    0.2,    0.2,    0.2,    0.1,   -0.0,   -0.1,   -0.2,   -0.2,   -0.2,   -0.1,   -0.1,   -0.1,   -0.1,   -0.1,   -0.1,   -0.1,   -0.2,   -0.3,   -0.3,   -0.4,   -0.6,   -0.7,   -0.5,   -0.4,   -0.4,   -0.7,   -0.6,   -0.6,   -0.4,   -0.6,   -0.6,   -0.5,   -0.5,   -0.6,   -0.7,   -0.7,   -0.8,   -0.6,   -0.4,   -0.5,   -0.5,   -0.3,   -0.4,   -0.3,   -0.6,   -0.3,   -0.4,   -0.5,   -0.9,   -0.7,   -0.9,   -1.0,   -0.8,   -0.7,   -0.9,  999.0,  999.0,   -0.6,   -0.7,   -0.6,   -0.3,   -0.2,   -0.4,   -0.2,   -0.2,   -0.1,   -0.1,   -0.1,   -0.2,   -0.5,   -0.6,   -0.7,  999.0,   -1.3,   -0.5,   -0.8,  999.0,  999.0,  999.0,  999.0,  999.0,   -1.0,   -1.1,   -0.6,   -1.3,   -1.0,   -1.3,   -0.9,   -0.2,   -0.4,   -0.5,   -0.3,   -0.3,   -0.4,   -0.3,   -0.3,   -0.1,   -0.4,   -0.2,    0.2,    0.1,    0.4,    0.3,    0.8,    0.9,    0.5
2003/10/17 00:45,   -0.1,    0.2,    0.3,    0.4,    0.3,    0.4,    0.2,    0.2,    0.0,   -0.1,   -0.2,   -0.1,   -0.2,   -0.1,   -0.1,   -0.2,   -0.2,   -0.1,   -0.1,   -0.0,    0.0,   -0.0,   -0.1,   -0.1,   -0.0,   -0.0,   -0.0,   -0.0,   -0.0,   -0.1,   -0.2,   -0.2,   -0.2,   -0.3,   -0.3,   -0.4,   -0.4,   -0.3,   -0.4,   -0.7,   -0.6,   -0.4,   -0.4,   -0.5,   -0.6,   -0.5,   -0.6,   -0.6,   -0.5,   -0.6,   -0.7,   -0.8,   -0.4,   -0.6,   -0.5,   -0.5,   -0.5,   -0.3,   -0.7,   -0.5,   -0.5,   -0.7,   -0.8,   -0.7,   -0.8,   -0.7,   -0.6,   -0.5,   -0.7,    0.8,  999.0,  999.0,   -0.6,   -0.6,   -0.3,   -0.1,   -0.6,    0.0,   -0.1,   -0.0,   -0.3,   -0.4,   -0.5,   -0.6,   -0.6,   -0.5,  999.0,  999.0,   -0.2,   -0.2,   -0.2,   -1.2,  999.0,  999.0,   -0.6,   -0.9,   -1.0,   -0.6,   -0.9,   -0.7,   -0.5,   -0.5,   -0.0,   -0.2,   -0.2,   -0.2,   -0.2,   -0.4,   -0.1,   -0.3,   -0.3,   -0.5,   -0.5,   -0.5,   -0.2,   -0.2,   -0.0,    0.0,   -0.2,   -0.1
2003/10/17 00:55,   -0.1,   -0.1,    0.2,    0.4,    0.3,    0.2,    0.2,    0.2,    0.2,    0.1,    0.0,    0.0,   -0.1,    0.1,    0.1,    0.1,    0.0,   -0.1,   -0.2,   -0.1,    0.0,    0.1,    0.0,    0.0,    0.1,    0.1,    0.1,    0.1,    0.0,   -0.0,   -0.1,   -0.1,   -0.0,   -0.2,   -0.2,   -0.1,   -0.2,   -0.2,   -0.3,   -0.3,   -0.4,   -0.1,   -0.3,   -0.4,   -0.4,   -0.3,   -0.4,   -0.4,   -0.4,   -0.4,   -0.5,   -0.4,   -0.4,   -0.5,   -0.5,   -0.3,   -0.4,   -0.0,   -0.3,   -0.5,   -0.3,   -0.4,   -0.6,   -0.4,   -0.3,   -0.2,   -0.1,   -0.2,   -0.5,  999.0,  999.0,    0.2,    0.1,   -0.3,   -0.1,    0.0,   -0.3,    0.2,   -0.1,    0.1,   -0.2,   -0.2,   -0.1,   -0.2,   -0.4,   -0.6,  999.0,  999.0,  999.0,    0.5,    0.0,  999.0,  999.0,  999.0,   -0.2,   -0.6,   -0.4,    0.2,   -0.4,   -0.6,   -0.4,   -0.1,    0.0,   -0.3,   -0.1,   -0.0,   -0.1,   -0.1,   -0.3,   -0.5,    0.0,   -0.3,   -0.4,   -0.3,   -0.2,   -0.2,    0.0,   -0.0,   -0.1,   -0.2
2003/10/17 01:05,   -0.5,   -0.4,   -0.4,   -0.2,   -0.0,   -0.0,   -0.1,   -0.1,   -0.1,   -0.3,   -0.2,   -0.2,   -0.1,   -0.1,   -0.1,   -0.0,   -0.1,   -0.1,   -0.0,   -0.1,   -0.0,    0.0,    0.0,    0.0,    0.0,    0.0,    0.0,   -0.0,   -0.0,    0.0,   -0.0,   -0.0,    0.0,   -0.1,   -0.1,   -0.1,   -0.1,   -0.1,   -0.1,   -0.3,   -0.4,   -0.2,   -0.3,   -0.3,   -0.3,   -0.0,   -0.2,   -0.2,   -0.3,   -0.3,   -0.2,   -0.2,   -0.3,   -0.3,   -0.5,   -0.6,   -0.5,   -0.2,   -0.6,   -0.6,   -0.6,   -0.8,   -0.6,   -0.6,   -0.8,   -0.6,   -0.4,   -0.6,   -0.7,  999.0,  999.0,   -0.5,   -0.5,   -0.4,   -0.2,   -0.1,    0.1,   -0.2,   -0.2,   -0.1,    0.0,   -0.1,   -0.2,   -0.3,   -0.5,   -0.1,    1.7,   -0.4,   -0.2,    0.0,   -0.1,    0.7,    3.1,  999.0,  999.0,    0.1,   -0.0,    0.3,   -1.0,   -0.4,   -0.4,   -0.1,    0.0,   -0.2,    0.0,    0.1,   -0.0,   -0.2,   -0.2,   -0.3,   -0.1,   -0.3,   -0.2,   -0.1,   -0.2,   -0.1,    0.1,   -0.1,    0.0,   -0.3
2003/10/17 01:15,   -0.1,   -0.2,   -0.2,   -0.2,    0.1,    0.3,    0.1,    0.1,    0.1,    0.1,    0.1,    0.0,   -0.1,    0.0,   -0.1,   -0.1,   -0.0,   -0.0,   -0.0,    0.0,    0.1,    0.1,    0.1,    0.1,    0.1,    0.1,   -0.0,   -0.1,   -0.1,   -0.1,   -0.1,   -0.2,   -0.2,   -0.2,   -0.2,   -0.2,   -0.4,   -0.4,   -0.5,   -0.4,   -0.5,   -0.3,   -0.4,   -0.5,   -0.6,   -0.8,   -0.5,   -0.6,   -0.6,   -0.7,   -0.5,   -0.5,   -0.6,   -0.5,   -0.2,   -0.3,   -0.4,   -0.1,   -0.4,   -0.5,   -0.6,   -0.9,   -0.6,   -0.7,   -0.6,   -0.6,   -0.9,   -0.6,   -0.8,   -0.7,   -0.2,   -0.4,   -0.7,   -0.6,   -0.1,   -0.2,   -0.5,   -0.1,   -0.7,   -0.4,   -0.3,   -0.4,   -0.6,   -0.4,   -0.7,   -0.6,    0.4,    0.4,   -0.2,    0.1,   -0.4,    0.1,    0.1,  999.0,   -0.2,   -0.3,   -0.4,   -0.4,   -0.3,   -0.5,   -0.2,   -0.1,   -0.1,   -0.2,   -0.1,   -0.2,   -0.3,   -0.3,   -0.1,   -0.4,   -0.4,   -0.6,   -0.6,   -0.5,   -0.5,   -0.5,   -0.3,   -0.2,    0.1,   -0.4
2003/10/17 01:25,   -0.0,   -0.1,   -0.2,    0.2,    0.2,    0.0,    0.5,    0.4,    0.4,    0.3,    0.3,    0.2,    0.2,    0.1,    0.0,    0.1,    0.1,    0.1,    0.1,    0.2,    0.1,    0.1,    0.1,    0.2,    0.2,    0.1,    0.1,    0.1,    0.1,    0.0,   -0.1,   -0.1,   -0.1,   -0.1,   -0.1,   -0.1,   -0.3,   -0.2,   -0.4,   -0.3,   -0.3,   -0.2,   -0.4,   -0.4,   -0.4,   -0.6,   -0.5,   -0.4,   -0.4,   -0.8,   -0.8,   -0.9,   -0.8,   -0.8,   -0.6,   -0.1,   -0.9,   -0.5,   -0.7,   -1.1,   -1.2,   -1.0,   -0.9,   -0.9,   -0.9,   -0.7,   -1.0,   -1.0,   -0.8,   -0.7,    1.3,   -0.7,   -0.1,   -0.6,   -0.3,   -0.5,   -0.9,   -0.2,   -0.3,   -0.6,   -0.5,   -0.3,   -0.8,   -0.8,   -0.6,   -1.1,   -0.6,    0.5,   -0.6,   -0.6,   -0.3,   -1.0,   -0.7,   -1.3,   -0.8,   -0.2,   -0.6,   -0.5,   -0.9,   -0.6,   -0.7,   -0.3,   -0.3,   -0.2,   -0.2,   -0.2,   -0.2,   -0.1,   -0.0,    0.1,   -0.2,   -0.2,   -0.6,   -0.4,   -0.2,    0.3,    0.3,    0.2,    0.4,    0.4
2003/10/17 01:35,   -0.3,   -0.2,   -0.3,    0.0,   -0.0,   -0.1,    0.0,   -0.0,    0.0,   -0.0,   -0.1,   -0.2,   -0.1,   -0.2,   -0.2,   -0.2,   -0.2,   -0.2,   -0.2,   -0.2,   -0.2,   -0.1,   -0.1,   -0.1,   -0.2,   -0.2,   -0.2,   -0.2,   -0.2,   -0.3,   -0.3,   -0.3,   -0.3,   -0.3,   -0.2,   -0.3,   -0.4,   -0.4,   -0.6,   -0.7,   -0.6,   -0.5,   -0.6,   -0.8,   -0.7,   -1.0,   -0.8,   -0.9,   -0.8,   -1.0,   -1.1,   -1.2,   -1.0,   -1.0,   -0.9,   -0.7,   -1.1,   -0.7,   -1.1,   -1.4,   -1.6,   -1.3,   -1.3,   -1.4,   -1.3,   -1.0,   -1.3,   -1.3,   -1.2,  999.0,  999.0,   -0.6,   -1.2,   -1.2,   -0.7,   -0.3,   -1.0,   -0.7,   -0.6,   -0.5,   -0.8,   -0.8,   -0.9,   -1.1,   -1.2,   -1.4,   -0.8,  999.0,   -1.0,   -0.9,   -0.9,   -0.7,  999.0,  999.0,   -0.6,   -0.8,   -0.7,   -0.7,   -0.9,   -1.0,   -0.7,   -0.4,   -0.6,   -0.5,   -0.4,   -0.4,   -0.4,   -0.4,   -0.2,   -0.4,   -0.3,   -0.2,   -0.3,   -0.2,   -0.1,    0.2,    0.3,  999.0,    0.6,    0.7
2003/10/17 01:45,    0.3,   -0.0,    0.1,    0.6,    0.5,   -0.1,    0.3,    0.3,    0.1,    0.2,    0.2,    0.1,    0.1,    0.1,    0.1,    0.2,    0.2,    0.2,    0.0,   -0.0,    0.1,    0.1,    0.2,    0.2,    0.2,    0.2,    0.2,    0.1,    0.1,    0.0,   -0.0,   -0.1,   -0.2,   -0.2,   -0.3,   -0.4,   -0.3,   -0.2,   -0.3,   -0.1,   -0.2,   -0.3,   -0.2,   -0.3,   -0.3,   -0.3,   -0.4,   -0.5,   -0.4,   -0.5,   -0.6,   -0.7,   -0.6,   -0.6,   -0.5,   -0.5,   -0.3,   -0.4,   -0.6,   -0.7,   -0.7,   -0.7,   -0.9,   -1.2,   -0.9,   -1.1,   -1.3,   -1.2,   -1.2,  999.0,  999.0,   -1.0,   -0.9,   -1.0,   -0.5,   -0.3,   -0.7,   -0.2,   -0.4,   -0.4,   -0.6,   -0.6,   -0.6,   -0.8,   -1.1,  999.0,  999.0,    2.2,   -0.9,   -0.5,   -0.8,  999.0,   -1.1,  999.0,   -0.5,   -0.5,   -0.8,   -1.1,   -1.0,   -0.7,   -0.5,   -0.2,   -0.3,   -0.5,    0.4,   -0.0,   -0.1,   -0.2,   -0.1,   -0.1,   -0.1,   -0.1,   -0.1,  999.0,    0.1,    0.1,    0.2,    0.1,    0.3,    0.6
2003/10/17 01:55,    0.3,    0.1,   -0.1,    0.1,   -0.0,   -0.1,   -0.2,   -0.2,   -0.1,   -0.1,    0.0,    0.0,    0.0,    0.0,    0.1,    0.1,    0.2,    0.2,    0.1,    0.1,    0.3,    0.2,    0.3,    0.2,    0.2,    0.3,    0.3,    0.3,    0.2,    0.1,   -0.0,   -0.1,   -0.0,   -0.1,   -0.3,   -0.3,   -0.2,   -0.2,   -0.3,   -0.1,   -0.4,   -0.5,   -0.3,   -0.5,   -0.4,   -0.6,   -0.6,   -0.5,   -0.5,   -0.6,   -0.8,   -1.0,   -0.7,   -0.9,   -0.6,   -1.0,   -0.3,   -0.6,   -1.0,   -1.2,   -1.1,   -1.2,   -1.4,   -1.2,   -1.1,   -1.3,   -1.3,   -1.5,   -1.2,  999.0,  999.0,   -1.0,   -1.2,   -1.5,   -0.9,   -1.0,   -1.1,   -0.7,   -1.0,   -0.9,   -1.2,   -1.0,   -1.3,   -1.3,   -1.2,  999.0,  999.0,  999.0,   -0.8,   -0.9,   -0.7,   -0.7,   -0.5,   -0.5,   -0.5,   -0.5,   -0.8,   -0.7,   -0.4,   -0.4,   -0.2,   -0.0,   -0.2,   -0.4,    0.3,    0.0,    0.1,   -0.1,    0.0,   -0.0,   -0.1,    0.2,   -0.2,  999.0,   -0.2,   -0.1,   -0.0,    0.3,    0.2,    0.2
2003/10/17 02:05,    0.1,    0.0,    0.3,   -0.2,   -0.2,   -0.2,    0.0,    0.1,    0.0,   -0.1,   -0.2,   -0.2,   -0.2,   -0.0,   -0.1,   -0.1,   -0.0,   -0.0,    0.1,    0.1,    0.1,    0.2,    0.2,    0.2,    0.1,    0.2,    0.2,    0.2,    0.1,   -0.0,   -0.1,   -0.2,   -0.1,   -0.1,   -0.3,   -0.4,   -0.4,   -0.5,   -0.5,   -0.5,   -0.7,   -0.5,   -0.6,   -0.5,   -0.5,   -0.6,   -0.7,   -0.4,   -0.7,   -0.7,   -0.7,   -0.9,   -1.0,   -0.7,   -0.8,   -0.8,   -0.2,   -0.4,   -0.8,   -1.0,   -1.3,   -1.1,   -1.2,   -1.2,   -1.0,   -1.1,   -1.6,   -1.4,   -1.3,   -1.3,   -1.3,   -1.1,   -1.1,   -1.1,   -0.6,   -0.9,   -0.9,   -0.6,   -0.8,   -0.9,   -0.6,   -0.8,   -1.0,   -0.9,   -1.2,  999.0,  999.0,  999.0,   -0.5,   -1.0,   -0.3,   -0.6,   -0.6,    0.0,   -0.5,   -0.5,   -0.4,   -0.3,   -0.3,   -0.3,   -0.1,    0.1,   -0.0,  999.0,    0.2,    0.2,    0.0,   -0.1,    0.0,   -0.1,   -0.1,   -0.1,   -0.3,   -0.6,   -0.3,   -0.3,    0.1,   -0.4,   -0.1,   -0.4
2003/10/17 02:15,   -0.7,   -0.2,   -0.2,   -0.2,   -0.2,    0.1,    0.1,    0.3,    0.1,    0.2,   -0.0,    0.1,    0.1,    0.0,    0.1,    0.0,   -0.0,   -0.1,   -0.1,   -0.1,   -0.0,    0.1,    0.1,    0.1,    0.0,   -0.0,   -0.0,   -0.1,   -0.1,   -0.2,   -0.3,   -0.3,   -0.2,   -0.2,   -0.4,   -0.4,   -0.5,   -0.5,   -0.5,   -0.5,   -0.7,   -0.6,   -0.7,   -0.7,   -0.7,   -0.8,   -0.6,   -0.5,   -0.9,   -0.5,   -0.8,   -0.9,   -0.8,   -0.3,   -0.4,   -0.5,   -0.3,   -0.4,   -0.7,   -0.8,   -0.8,   -0.9,   -0.9,   -1.0,   -1.1,   -1.4,   -1.0,   -1.0,   -1.1,   -0.7,   -0.5,   -0.9,   -1.0,   -1.0,   -0.5,   -0.7,   -0.6,   -0.4,   -0.4,   -0.4,   -0.8,   -0.7,   -0.8,   -0.8,   -0.9,  999.0,  999.0,   -0.9,   -0.6,   -0.8,   -0.2,   -0.3,   -0.7,   -0.6,   -0.2,   -0.3,   -0.2,   -0.2,   -0.2,   -0.3,   -0.1,    0.0,   -0.0,  999.0,   -0.0,    0.2,    0.0,   -0.0,   -0.1,   -0.1,   -0.1,   -0.2,   -0.4,   -0.3,   -0.4,   -0.3,   -0.3,   -0.3,   -0.6,   -0.9
2003/10/17 02:25,    0.2,    0.2,    0.2,    0.5,    0.5,    0.2,    0.0,   -0.2,   -0.2,   -0.4,   -0.3,   -0.2,   -0.2,   -0.2,   -0.2,   -0.1,    0.0,    0.1,    0.1,    0.1,    0.1,    0.2,    0.2,    0.2,    0.2,    0.2,    0.2,    0.2,    0.2,    0.3,    0.3,    0.3,    0.4,    0.2,    0.1,    0.0,   -0.0,   -0.1,   -0.1,   -0.1,   -0.2,   -0.1,   -0.1,   -0.2,   -0.3,   -0.4,   -0.3,   -0.3,   -0.2,   -0.4,   -0.5,   -0.8,   -0.6,    0.1,    0.0,   -0.4,   -0.3,   -0.4,   -0.3,   -0.5,   -0.8,   -0.9,   -1.0,   -0.9,   -0.7,   -1.0,   -0.4,   -0.8,   -0.9,   -0.8,   -1.3,   -0.7,   -0.8,   -1.1,   -0.6,   -0.7,   -0.4,   -0.5,   -0.5,   -0.5,   -0.4,   -0.8,   -0.8,   -0.9,   -0.9,    1.6,    0.7,   -0.8,    0.2,   -0.4,   -0.4,   -0.7,   -0.7,   -0.4,   -0.3,    0.1,   -0.2,   -0.5,   -0.5,   -0.5,   -0.3,    0.0,   -0.1,  999.0,   -0.3,    0.0,    0.0,    0.0,   -0.1,   -0.2,   -0.2,   -0.2,   -0.4,   -0.4,   -0.2,   -0.4,   -0.2,   -0.2,   -0.5,   -0.5
2003/10/17 02:35,   -0.1,    0.0,    0.0,   -0.1,   -0.2,   -0.0,    0.0,   -0.0,   -0.0,   -0.1,    0.0,    0.1,    0.1,    0.0,   -0.0,    0.0,    0.1,    0.2,    0.1,    0.1,    0.0,    0.0,    0.0,   -0.0,   -0.1,   -0.1,   -0.1,   -0.1,   -0.1,   -0.1,   -0.0,   -0.1,   -0.1,   -0.1,   -0.1,   -0.2,   -0.4,   -0.3,   -0.3,   -0.3,   -0.6,   -0.6,   -0.1,   -0.4,   -0.4,   -0.5,   -0.5,   -0.5,   -0.6,   -0.5,   -0.8,   -0.7,   -0.7,   -0.4,   -0.6,   -0.7,   -0.3,   -0.3,   -0.5,   -0.8,   -0.6,   -0.6,   -0.5,   -0.6,   -0.6,   -0.7,   -1.1,   -0.9,   -1.1,   -0.7,   -0.6,   -1.1,   -1.0,   -0.6,   -0.4,   -0.8,   -0.2,   -0.3,   -0.5,   -0.2,   -0.3,   -0.3,   -0.6,   -0.8,   -0.8,   -2.5,   -1.4,   -0.7,   -0.9,   -1.0,   -0.5,   -0.5,    1.0,   -0.1,   -0.3,   -0.5,   -0.2,   -0.4,   -0.4,   -0.2,   -0.7,    0.1,   -0.1,   -0.8,   -0.3,   -0.1,   -0.1,   -0.0,   -0.1,   -0.1,    0.2,   -0.5,   -0.3,   -0.3,   -0.1,    0.0,   -0.3,    0.2,   -0.3,    0.5
2003/10/17 02:45,  999.0,  999.0,  999.0,  999.0,  999.0,  999.0,  999.0,  999.0,  999.0,  999.0,  999.0,  999.0,  999.0,  999.0,  999.0,  999.0,  999.0,  999.0,  999.0,  999.0,  999.0,  999.0,  999.0,  999.0,  999.0,  999.0,  999.0,  999.0,  999.0,  999.0,  999.0,  999.0,  999.0,  999.0,  999.0,  999.0,  999.0,  999.0,  999.0,  999.0,  999.0,  999.0,  999.0,  999.0,  999.0,  999.0,  999.0,  999.0,  999.0,  999.0,  999.0,  999.0,  999.0,  999.0,  999.0,  999.0,  999.0,  999.0,  999.0,  999.0,  999.0,  999.0,  999.0,  999.0,  999.0,  999.0,  999.0,  999.0,  999.0,  999.0,  999.0,  999.0,  999.0,  999.0,  999.0,  999.0,  999.0,  999.0,  999.0,  999.0,  999.0,  999.0,  999.0,  999.0,  999.0,  999.0,  999.0,  999.0,  999.0,  999.0,  999.0,  999.0,  999.0,  999.0,  999.0,  999.0,  999.0,  999.0,  999.0,  999.0,  999.0,  999.0,  999.0,  999.0,  999.0,  999.0,  999.0,  999.0,  999.0,  999.0,  999.0,  999.0,  999.0,  999.0,  999.0,  999.0,  999.0,  999.0,  999.0,  999.0
2003/10/17 02:55,  999.0,  999.0,  999.0,  999.0,  999.0,  999.0,  999.0,  999.0,  999.0,  999.0,  999.0,  999.0,  999.0,  999.0,  999.0,  999.0,  999.0,  999.0,  999.0,  999.0,  999.0,  999.0,  999.0,  999.0,  999.0,  999.0,  999.0,  999.0,  999.0,  999.0,  999.0,  999.0,  999.0,  999.0,  999.0,  999.0,  999.0,  999.0,  999.0,  999.0,  999.0,  999.0,  999.0,  999.0,  999.0,  999.0,  999.0,  999.0,  999.0,  999.0,  999.0,  999.0,  999.0,  999.0,  999.0,  999.0,  999.0,  999.0,  999.0,  999.0,  999.0,  999.0,  999.0,  999.0,  999.0,  999.0,  999.0,  999.0,  999.0,  999.0,  999.0,  999.0,  999.0,  999.0,  999.0,  999.0,  999.0,  999.0,  999.0,  999.0,  999.0,  999.0,  999.0,  999.0,  999.0,  999.0,  999.0,  999.0,  999.0,  999.0,  999.0,  999.0,  999.0,  999.0,  999.0,  999.0,  999.0,  999.0,  999.0,  999.0,  999.0,  999.0,  999.0,  999.0,  999.0,  999.0,  999.0,  999.0,  999.0,  999.0,  999.0,  999.0,  999.0,  999.0,  999.0,  999.0,  999.0,  999.0,  999.0,  999.0
2003/10/17 03:05,  999.0,  999.0,  999.0,  999.0,  999.0,  999.0,  999.0,  999.0,  999.0,  999.0,  999.0,  999.0,  999.0,  999.0,  999.0,  999.0,  999.0,  999.0,  999.0,  999.0,  999.0,  999.0,  999.0,  999.0,  999.0,  999.0,  999.0,  999.0,  999.0,  999.0,  999.0,  999.0,  999.0,  999.0,  999.0,  999.0,  999.0,  999.0,  999.0,  999.0,  999.0,  999.0,  999.0,  999.0,  999.0,  999.0,  999.0,  999.0,  999.0,  999.0,  999.0,  999.0,  999.0,  999.0,  999.0,  999.0,  999.0,  999.0,  999.0,  999.0,  999.0,  999.0,  999.0,  999.0,  999.0,  999.0,  999.0,  999.0,  999.0,  999.0,  999.0,  999.0,  999.0,  999.0,  999.0,  999.0,  999.0,  999.0,  999.0,  999.0,  999.0,  999.0,  999.0,  999.0,  999.0,  999.0,  999.0,  999.0,  999.0,  999.0,  999.0,  999.0,  999.0,  999.0,  999.0,  999.0,  999.0,  999.0,  999.0,  999.0,  999.0,  999.0,  999.0,  999.0,  999.0,  999.0,  999.0,  999.0,  999.0,  999.0,  999.0,  999.0,  999.0,  999.0,  999.0,  999.0,  999.0,  999.0,  999.0,  999.0
2003/10/17 03:15,   -0.1,   -0.2,    0.3,    0.0,    0.1,   -0.1,    0.1,   -0.0,   -0.1,   -0.2,   -0.2,   -0.2,   -0.3,   -0.3,   -0.2,   -0.2,   -0.2,   -0.3,   -0.4,   -0.4,   -0.3,   -0.2,   -0.2,   -0.2,   -0.1,   -0.1,   -0.1,    0.0,   -0.0,   -0.1,   -0.1,   -0.0,    0.1,   -0.0,    0.0,   -0.0,   -0.1,   -0.3,   -0.3,   -0.2,   -0.3,   -0.4,   -0.4,   -0.4,   -0.6,   -0.7,   -0.5,   -0.6,   -0.5,   -0.4,   -0.3,   -0.6,   -0.5,    0.1,   -0.3,   -0.6,   -0.4,   -0.4,   -0.2,   -0.2,   -0.7,   -1.0,   -1.0,   -0.9,   -0.9,   -1.0,   -0.8,   -0.9,   -0.9,   -0.5,   -0.8,   -0.8,   -0.9,   -1.0,   -0.7,   -1.2,  999.0,  999.0,   -0.6,   -0.6,   -0.5,   -0.5,   -0.4,   -0.9,   -0.7,   -0.7,   -0.7,   -0.7,   -0.4,    0.3,   -0.0,    0.0,   -0.5,   -0.6,  999.0,   -0.1,   -0.1,   -0.3,   -0.4,   -0.4,    0.1,    0.1,   -0.2,   -0.2,   -0.5,   -0.1,   -0.0,   -0.1,   -0.1,   -0.2,   -0.3,   -0.4,   -0.6,   -0.5,   -0.5,   -0.2,  999.0,    0.0,  999.0,  999.0
2003/10/17 03:25,   -0.1,   -0.2,   -0.8,   -0.0,    0.1,    0.2,    0.0,    0.0,   -0.1,   -0.1,    0.1,    0.1,   -0.0,   -0.0,    0.1,    0.1,    0.1,    0.1,   -0.0,    0.0,    0.0,    0.1,    0.2,    0.2,    0.2,    0.1,    0.3,    0.2,    0.2,    0.2,    0.2,    0.3,    0.3,    0.3,    0.3,    0.3,    0.2,    0.2,    0.1,    0.1,   -0.0,   -0.0,   -0.0,   -0.1,   -0.2,   -0.4,   -0.5,   -0.5,   -0.3,   -0.4,   -0.5,   -0.4,   -0.3,   -0.2,   -0.4,   -0.4,   -0.5,   -0.2,   -0.2,   -0.4,   -0.8,   -1.0,   -0.9,   -0.9,   -0.9,   -1.0,   -1.1,   -1.3,   -1.2,   -1.2,   -1.1,   -0.9,   -0.9,   -0.9,   -0.6,   -0.9,   -0.7,   -0.7,   -0.3,   -0.4,   -0.6,   -0.5,   -0.6,   -0.5,   -0.9,   -0.9,   -0.7,   -0.5,  999.0,    1.0,   -0.1,    0.1,   -0.2,   -0.4,  999.0,    0.0,    0.2,   -0.1,   -0.1,   -0.3,   -0.1,   -0.3,    0.1,   -0.3,   -0.6,   -0.1,   -0.2,   -0.1,   -0.0,   -0.2,   -0.2,   -0.4,   -0.4,   -0.3,   -0.4,   -0.3,   -0.2,    0.0,    0.0,   -0.5
2003/10/17 03:35,    0.1,    0.4,   -0.1,   -0.1,   -0.0,    0.0,   -0.1,   -0.1,   -0.0,   -0.0,   -0.0,   -0.1,   -0.1,   -0.2,   -0.1,   -0.1,   -0.1,   -0.1,   -0.1,   -0.1,   -0.1,   -0.1,   -0.0,   -0.1,   -0.1,   -0.1,   -0.1,   -0.0,   -0.0,   -0.2,   -0.1,   -0.1,   -0.1,   -0.1,   -0.3,   -0.4,   -0.4,   -0.4,   -0.4,   -0.5,   -0.5,   -0.7,   -0.5,   -0.3,   -0.5,   -0.6,   -0.6,   -0.7,   -0.7,   -0.8,   -0.6,   -0.8,   -0.7,   -0.8,   -0.9,   -0.9,   -0.8,   -0.6,   -0.9,   -1.0,   -0.9,   -1.1,   -1.1,   -1.2,   -1.0,   -1.0,   -1.1,   -1.4,   -1.2,   -0.9,   -1.1,   -1.0,   -0.9,   -1.1,   -0.9,   -1.4,   -1.7,   -1.1,   -1.0,   -1.0,   -1.4,   -1.5,   -1.5,   -1.5,   -1.3,   -1.4,   -1.1,   -1.2,   -1.5,  999.0,   -0.6,   -0.3,   -0.2,   -0.5,  999.0,    0.0,    0.1,   -0.2,   -0.2,   -0.4,   -0.2,   -0.3,   -0.4,   -0.4,   -0.1,   -0.0,   -0.2,   -0.1,   -0.0,   -0.3,   -0.2,   -0.4,   -0.3,   -0.3,   -0.2,   -0.2,   -0.0,    0.1,   -0.1,   -0.2
2003/10/17 03:45,   -0.0,    0.1,    0.2,   -0.1,   -0.1,   -0.1,    0.0,    0.1,    0.1,    0.1,    0.1,    0.1,    0.1,    0.1,    0.0,   -0.0,    0.0,    0.0,    0.1,    0.1,    0.0,    0.0,    0.1,    0.1,    0.1,    0.1,    0.0,    0.0,   -0.0,   -0.0,   -0.0,   -0.1,   -0.1,   -0.1,   -0.2,   -0.2,   -0.4,   -0.6,   -0.6,   -0.6,   -0.7,   -0.5,   -0.5,   -0.4,   -0.5,   -0.8,   -1.0,   -1.1,   -0.8,   -0.8,   -0.9,   -0.8,   -0.7,   -0.8,   -1.1,   -0.8,   -0.9,   -0.7,   -0.8,   -1.0,   -1.1,   -1.4,   -1.2,   -0.9,   -1.0,   -1.1,   -1.1,   -1.4,   -1.3,   -1.1,   -1.1,   -1.2,   -1.3,   -1.7,   -1.6,   -2.2,   -1.5,   -1.4,   -0.9,   -0.9,   -0.9,   -1.5,   -1.4,   -1.4,   -1.3,   -1.9,   -1.2,   -1.2,  999.0,  999.0,   -0.2,   -0.5,   -0.8,   -0.9,  999.0,   -0.1,   -0.1,   -0.5,   -0.5,   -0.4,   -0.3,   -0.1,   -0.2,   -0.3,   -0.1,    0.1,   -0.1,   -0.2,    0.1,   -0.1,   -0.3,   -0.2,   -0.4,   -0.2,   -0.0,   -0.3,    0.3,    0.2,    0.1,    0.0
2003/10/17 03:55,    0.1,   -0.2,   -0.1,    0.1,    0.0,   -0.0,   -0.1,    0.2,   -0.0,    0.0,    0.1,    0.1,    0.0,    0.0,    0.0,    0.0,    0.0,   -0.1,    0.0,    0.1,    0.0,    0.1,   -0.0,    0.0,    0.1,    0.0,    0.0,   -0.0,   -0.0,   -0.0,   -0.1,   -0.1,   -0.1,   -0.0,   -0.0,   -0.0,   -0.2,   -0.2,   -0.3,   -0.3,   -0.3,   -0.2,   -0.3,   -0.2,   -0.2,   -0.5,   -0.6,   -0.5,   -0.6,   -0.7,   -0.7,   -0.7,   -0.4,   -0.8,   -0.8,   -0.6,   -0.5,   -0.7,   -0.8,   -0.7,   -0.9,   -1.0,   -0.8,   -0.3,   -0.7,   -1.0,   -1.2,   -0.9,   -0.9,   -0.7,   -1.0,   -0.8,   -1.1,   -1.1,   -0.9,   -1.5,   -0.5,   -0.2,   -0.3,   -0.4,   -0.5,   -0.1,   -0.8,   -0.7,   -0.9,   -1.2,   -0.9,   -0.3,   -0.4,   -0.7,   -0.2,   -0.2,   -0.4,   -0.3,    1.0,  999.0,    0.0,   -0.2,   -0.3,   -0.3,   -0.3,   -0.1,   -0.2,   -0.4,   -0.3,    0.0,   -0.1,   -0.0,   -0.0,   -0.1,   -0.2,   -0.2,   -0.2,   -0.3,   -0.3,   -0.5,   -0.1,    0.2,   -0.0,   -0.2
2003/10/17 04:05,   -0.0,    0.1,    0.1,    0.2,    0.2,    0.2,    0.1,    0.1,    0.2,    0.1,    0.1,   -0.1,    0.1,   -0.0,    0.1,    0.0,    0.0,   -0.2,   -0.2,   -0.2,   -0.2,   -0.2,   -0.1,   -0.2,   -0.1,   -0.1,   -0.1,   -0.2,   -0.2,   -0.1,   -0.2,   -0.1,   -0.1,   -0.1,   -0.1,   -0.2,   -0.2,   -0.3,   -0.3,   -0.4,   -0.4,   -0.5,   -0.4,   -0.2,   -0.5,   -0.7,   -0.7,   -0.7,   -0.7,   -0.7,   -0.6,   -0.6,   -0.4,   -0.8,   -0.9,   -0.4,   -0.5,   -0.7,   -1.1,   -1.1,   -1.0,   -1.0,   -1.0,   -1.1,   -1.0,   -0.9,   -1.2,   -1.2,   -0.8,   -0.7,   -0.7,   -0.8,   -1.3,   -1.1,  999.0,   -0.6,   -1.0,   -0.4,   -0.0,   -0.3,   -0.4,   -0.5,   -0.6,   -0.8,   -1.0,   -1.1,   -1.0,   -0.4,  999.0,   -0.9,   -0.2,   -0.2,   -0.3,   -0.4,  999.0,   -0.2,   -0.3,    0.0,   -0.3,   -0.3,   -0.1,   -0.1,   -0.2,   -0.3,   -0.8,   -0.3,   -0.2,   -0.3,   -0.2,   -0.3,   -0.4,   -0.6,   -0.3,   -0.3,   -0.3,   -0.3,   -0.3,   -0.0,   -0.1,  999.0
2003/10/17 04:15,    0.0,   -0.1,   -0.4,   -0.2,   -0.3,   -0.0,   -0.0,    0.0,   -0.1,   -0.1,   -0.0,    0.0,    0.0,    0.1,    0.1,    0.2,    0.1,    0.1,    0.0,    0.1,    0.1,    0.1,    0.0,    0.1,    0.1,    0.1,    0.1,    0.0,    0.0,   -0.0,   -0.1,   -0.0,   -0.0,   -0.0,   -0.1,   -0.1,   -0.2,   -0.3,   -0.4,   -0.3,   -0.4,   -0.4,   -0.3,   -0.2,   -0.4,   -0.7,   -0.9,   -0.5,   -0.6,   -0.5,   -0.5,   -0.3,   -0.3,   -0.4,   -0.6,   -0.4,   -0.6,   -1.0,   -0.7,   -0.6,   -0.6,   -0.9,   -0.8,   -0.8,   -0.9,   -1.3,   -0.8,   -0.8,   -1.1,   -0.8,   -0.4,   -0.6,  999.0,  999.0,    0.1,  999.0,   -0.8,   -0.3,    0.0,   -0.2,   -0.2,   -0.4,   -0.5,   -0.5,   -0.7,   -0.8,   -0.6,   -1.3,  999.0,   -0.2,    0.0,   -0.4,   -0.9,   -0.5,  999.0,   -3.3,   -0.5,   -0.1,   -0.3,   -0.5,   -0.6,   -0.3,   -0.4,   -0.5,   -0.5,   -0.3,   -0.2,   -0.4,   -0.2,   -0.7,   -0.6,   -0.5,   -0.4,   -0.3,   -0.2,   -0.1,   -0.4,   -0.1,   -0.1,  999.0
2003/10/17 04:25,   -0.3,   -0.2,   -0.0,    0.0,    0.1,    0.1,    0.1,    0.2,    0.2,    0.2,    0.1,    0.0,   -0.1,   -0.1,   -0.1,   -0.1,   -0.1,   -0.1,   -0.1,   -0.1,   -0.1,   -0.1,   -0.1,   -0.1,   -0.1,   -0.1,   -0.1,   -0.2,   -0.2,   -0.3,   -0.2,   -0.1,   -0.2,   -0.1,   -0.1,   -0.1,   -0.2,   -0.2,   -0.3,   -0.2,   -0.3,   -0.3,   -0.2,   -0.1,   -0.4,   -0.5,   -0.6,   -0.4,   -0.4,   -0.5,   -0.7,   -0.3,   -0.4,   -0.5,   -0.6,   -0.3,   -0.5,   -0.8,   -0.9,   -1.0,   -0.9,   -0.9,   -0.9,   -1.0,   -1.3,   -1.3,   -1.4,   -1.0,   -1.2,   -0.8,   -0.9,   -0.9,   -1.4,   -1.9,  999.0,   -1.1,   -0.7,   -0.6,   -0.3,   -0.4,   -0.6,   -0.8,   -0.7,   -1.1,   -0.9,   -1.1,   -0.8,   -0.7,   -0.8,   -0.8,  999.0,   -0.5,   -0.7,   -0.7,   -0.6,  999.0,   -0.7,   -0.3,   -0.4,   -0.5,   -0.4,   -0.7,   -0.7,   -0.7,   -0.7,   -0.2,   -0.2,   -0.4,   -0.1,   -0.4,   -0.5,   -0.4,   -0.4,   -0.2,   -0.3,    0.1,    0.0,   -0.0,   -0.1,  999.0
2003/10/17 04:35,    0.0,    0.0,    0.0,    0.0,    0.0,   -0.1,   -0.0,    0.1,    0.1,    0.0,    0.0,    0.1,    0.1,    0.1,    0.1,    0.0,   -0.0,   -0.1,    0.0,   -0.0,   -0.0,   -0.1,   -0.1,   -0.1,   -0.1,   -0.1,   -0.1,   -0.2,   -0.2,   -0.2,   -0.2,   -0.2,   -0.2,   -0.2,   -0.2,   -0.2,   -0.4,   -0.5,   -0.7,   -0.6,   -0.6,   -0.7,   -0.6,   -0.5,   -0.6,   -0.7,   -0.8,   -0.5,   -0.8,   -0.7,   -0.6,   -0.5,   -0.5,   -0.5,   -0.7,   -0.5,   -0.5,   -0.7,   -0.7,   -1.0,   -0.7,   -0.9,   -0.8,   -0.8,   -1.2,   -1.0,   -1.2,   -1.0,   -0.9,   -0.9,   -1.0,   -1.0,   -1.8,   -0.9,   -0.5,   -0.8,   -0.4,   -0.2,   -0.3,   -0.5,   -0.2,   -0.3,   -0.4,   -0.8,   -1.0,   -0.7,   -0.6,    0.1,   -0.8,   -0.4,  999.0,   -0.4,   -0.4,   -0.4,   -0.9,  999.0,   -0.6,   -0.3,   -0.4,   -0.4,   -0.1,   -0.4,  999.0,   -0.4,    0.0,    0.0,    0.0,   -0.1,   -0.0,   -0.2,   -0.1,   -0.2,   -0.2,   -0.1,   -0.1,    0.3,   -0.2,    0.1,   -0.2,  999.0
2003/10/17 04:45,    0.1,   -0.0,   -0.0,   -0.0,    0.0,   -0.1,   -0.0,   -0.0,   -0.1,   -0.2,   -0.1,   -0.1,   -0.2,   -0.2,   -0.2,   -0.2,   -0.2,   -0.2,   -0.1,   -0.2,   -0.1,   -0.2,   -0.1,   -0.1,   -0.1,   -0.1,   -0.1,   -0.1,   -0.2,   -0.1,   -0.1,   -0.1,   -0.0,   -0.0,   -0.0,   -0.0,   -0.1,   -0.1,   -0.2,   -0.2,   -0.3,   -0.2,   -0.4,   -0.4,   -0.5,   -0.5,   -0.6,   -0.7,   -0.5,   -0.5,   -0.6,   -0.3,   -0.4,   -0.6,   -0.5,   -0.4,   -0.4,   -0.4,   -0.9,   -0.4,   -0.6,   -0.6,   -0.4,   -0.3,   -0.5,   -1.1,   -0.4,   -0.5,   -0.5,   -0.5,   -0.4,   -0.4,   -0.6,   -0.5,   -1.1,    0.0,   -0.3,    0.1,    0.1,   -0.3,    0.3,   -0.0,    0.0,   -0.5,   -0.6,   -1.2,   -0.4,   -0.5,   -0.2,   -0.5,  999.0,  999.0,   -0.2,   -0.4,   -0.3,  999.0,   -0.1,    0.1,   -0.2,   -0.3,   -0.3,   -0.2,  999.0,   -0.5,   -0.3,   -0.1,   -0.1,   -0.1,   -0.1,   -0.3,   -0.4,   -0.3,   -0.3,   -0.2,   -0.1,   -0.1,   -0.1,   -0.1,   -0.3,  999.0
2003/10/17 04:55,   -0.1,   -0.1,   -0.1,   -0.0,   -0.0,   -0.1,    0.1,    0.1,    0.1,    0.1,    0.0,   -0.0,   -0.1,   -0.0,   -0.0,   -0.0,   -0.0,    0.0,   -0.0,   -0.1,   -0.0,    0.0,    0.0,   -0.0,   -0.0,   -0.0,   -0.0,   -0.0,   -0.0,   -0.0,   -0.1,   -0.1,    0.0,    0.1,    0.1,   -0.1,   -0.0,   -0.0,   -0.1,   -0.2,   -0.2,   -0.1,   -0.2,   -0.1,   -0.2,   -0.3,   -0.4,   -0.3,   -0.4,   -0.3,   -0.4,   -0.2,   -0.2,   -0.3,   -0.4,   -0.4,   -0.3,   -0.3,   -0.5,   -0.4,   -0.4,   -0.4,   -0.3,   -0.2,   -0.2,   -0.3,   -0.3,   -0.2,   -0.2,   -0.3,   -0.4,   -0.4,   -0.2,   -0.7,  999.0,   -0.7,   -0.3,   -0.3,    0.1,   -0.4,   -0.5,    0.4,   -0.4,   -0.6,   -0.7,   -1.1,   -0.2,   -0.1,   -0.3,   -0.4,  999.0,   -0.2,   -0.2,   -0.4,   -0.6,  999.0,    0.3,   -0.1,   -0.3,   -0.5,   -0.3,   -0.5,  999.0,   -0.6,   -0.5,   -0.4,   -0.4,   -0.4,   -0.3,   -0.4,   -0.2,   -0.3,   -0.3,   -0.4,   -0.2,   -0.1,    0.5,    0.2,   -0.1,  999.0
2003/10/17 05:05,    0.2,    0.3,    0.3,    0.1,    0.1,   -0.0,   -0.0,   -0.0,   -0.0,   -0.1,   -0.1,   -0.2,   -0.1,   -0.1,   -0.1,   -0.1,   -0.1,   -0.1,   -0.1,   -0.1,    0.0,   -0.1,   -0.1,   -0.1,   -0.1,   -0.1,   -0.1,   -0.1,   -0.1,   -0.2,   -0.2,   -0.2,   -0.1,   -0.1,   -0.2,   -0.2,   -0.3,   -0.3,   -0.4,   -0.5,   -0.5,   -0.6,   -0.5,   -0.4,   -0.4,   -0.6,   -0.6,   -0.5,   -0.6,   -0.6,   -0.6,   -0.4,   -0.4,   -0.6,   -0.7,   -0.7,   -0.6,   -0.8,   -1.0,   -0.6,   -0.7,   -0.8,   -0.6,   -0.8,   -0.4,   -0.6,   -0.7,   -0.7,   -0.5,   -0.3,   -0.9,   -1.0,   -1.1,   -0.9,   -1.8,   -0.7,   -0.9,   -0.4,   -0.2,   -0.5,   -0.5,   -0.7,   -0.7,   -0.9,   -1.0,   -1.1,   -0.8,   -0.4,   -1.4,   -1.1,  999.0,   -0.5,   -0.6,   -0.5,   -0.6,  999.0,   -0.3,   -0.3,   -0.3,   -0.4,   -0.5,   -0.4,  999.0,   -0.5,   -0.5,   -0.4,   -0.4,   -0.3,   -0.3,   -0.3,   -0.3,   -0.3,   -0.2,   -0.1,   -0.1,    0.2,    0.4,    0.2,    0.1,  999.0
2003/10/17 05:15,   -0.0,   -0.1,   -0.1,   -0.1,   -0.0,   -0.1,    0.1,   -0.0,   -0.1,   -0.1,   -0.1,   -0.1,   -0.0,    0.0,    0.0,    0.0,    0.0,    0.1,    0.1,    0.2,    0.1,    0.1,    0.1,    0.1,    0.1,    0.1,    0.1,    0.1,    0.1,    0.1,    0.1,    0.1,    0.2,    0.3,    0.1,   -0.0,   -0.0,   -0.2,   -0.2,   -0.4,   -0.4,   -0.5,   -0.5,   -0.5,   -0.6,   -0.9,   -0.9,   -1.0,   -1.0,   -0.9,   -0.7,   -0.5,   -0.8,   -1.2,   -1.0,   -0.5,   -0.8,   -1.1,   -1.0,   -0.9,   -1.2,   -1.2,   -0.8,   -0.6,   -1.2,   -1.0,   -1.3,   -0.6,   -0.8,   -0.9,   -1.2,   -1.2,   -1.4,   -1.5,   -1.2,   -1.0,   -1.2,   -0.6,   -0.3,   -0.7,   -0.7,   -0.7,   -1.1,   -1.0,   -1.1,   -1.4,   -1.2,   -1.1,   -0.8,   -0.9,   -0.9,   -0.7,   -0.9,   -0.4,   -0.6,   -1.5,   -0.1,   -0.0,   -0.3,   -0.2,    0.1,   -0.1,    0.3,   -0.1,   -0.3,   -0.1,   -0.0,   -0.0,    0.0,   -0.2,   -0.1,   -0.4,   -0.4,   -0.3,   -0.4,   -0.2,   -0.2,   -0.2,   -0.4,   -0.4
2003/10/17 05:25,   -0.0,   -0.0,   -0.1,   -0.0,   -0.1,   -0.2,   -0.0,   -0.0,    0.0,    0.0,    0.0,    0.0,    0.1,   -0.0,   -0.0,   -0.0,   -0.0,    0.0,    0.0,    0.0,   -0.0,   -0.1,   -0.1,   -0.1,   -0.1,   -0.2,   -0.1,   -0.1,   -0.1,   -0.1,   -0.1,   -0.1,   -0.1,   -0.1,   -0.1,   -0.2,   -0.3,   -0.4,   -0.5,   -0.5,   -0.4,   -0.5,   -0.7,   -0.5,   -0.5,   -0.7,   -0.7,   -0.8,   -0.7,   -0.6,   -0.4,   -0.3,   -0.5,   -0.8,   -1.0,   -0.6,   -0.7,   -1.0,   -0.9,   -0.6,   -1.1,   -1.2,   -1.3,   -1.2,   -1.0,   -1.0,   -0.3,   -0.6,   -1.0,   -1.1,   -1.1,   -1.4,   -0.6,   -1.1,   -0.7,   -1.2,   -0.7,   -0.4,   -0.2,   -0.3,   -0.3,   -0.4,   -0.7,   -1.0,   -1.0,   -1.4,   -1.3,   -1.2,   -1.2,   -0.9,   -1.1,   -0.8,   -0.7,   -0.5,   -0.6,   -0.5,    0.0,    0.1,   -0.2,    0.0,    0.3,    0.1,  999.0,    0.1,   -0.0,    0.0,   -0.0,    0.0,    0.0,   -0.1,   -0.1,   -0.3,   -0.4,   -0.2,   -0.1,    0.0,    0.0,    0.1,  999.0,   -0.5
2003/10/17 05:35,   -0.0,    0.1,    0.0,   -0.0,    0.0,   -0.1,    0.1,    0.1,   -0.0,   -0.1,   -0.1,   -0.1,   -0.1,   -0.1,   -0.2,   -0.1,   -0.1,   -0.1,   -0.2,   -0.1,   -0.1,   -0.1,   -0.0,   -0.0,   -0.0,   -0.0,    0.0,    0.0,   -0.0,    0.0,    0.0,   -0.1,   -0.0,   -0.1,   -0.1,   -0.1,   -0.2,   -0.4,   -0.4,   -0.5,   -0.4,   -0.6,   -0.4,   -0.5,   -0.6,   -0.9,   -0.7,   -0.7,   -0.6,   -0.6,   -0.4,   -0.5,   -0.6,   -0.8,   -0.6,   -0.4,   -0.4,   -0.8,   -0.8,   -0.4,   -0.4,   -0.6,   -0.7,   -0.1,   -0.6,   -0.9,   -0.5,   -0.4,   -0.5,   -0.6,   -1.1,   -0.6,   -1.4,   -0.1,    0.2,   -0.5,   -0.5,    0.0,    0.1,    0.0,    0.0,   -0.3,   -0.2,   -0.6,   -0.9,   -0.6,    0.0,   -0.7,   -0.8,   -0.6,   -0.6,    0.1,   -0.3,   -0.4,   -0.5,   -0.4,   -0.2,   -0.1,   -0.2,   -0.3,   -0.4,   -0.4,   -0.3,   -0.4,   -0.4,   -0.1,   -0.3,   -0.4,   -0.2,   -0.4,   -0.4,   -0.4,   -0.3,   -0.1,   -0.1,   -0.2,    0.1,   -0.1,   -0.2,   -0.4
2003/10/17 05:45,   -0.1,   -0.1,   -0.1,   -0.1,   -0.2,   -0.1,    0.0,   -0.0,   -0.1,   -0.0,   -0.0,    0.0,    0.0,    0.0,   -0.0,   -0.0,   -0.1,   -0.0,    0.0,    0.0,   -0.1,    0.1,    0.0,    0.1,    0.0,    0.0,    0.0,    0.0,    0.1,    0.1,    0.1,   -0.0,   -0.0,   -0.1,   -0.1,   -0.1,   -0.1,   -0.1,   -0.2,   -0.2,   -0.2,   -0.4,   -0.4,   -0.4,   -0.4,   -0.6,   -0.7,   -0.6,   -0.4,   -0.5,   -0.5,   -0.3,   -0.4,   -0.8,   -0.5,   -0.6,   -0.7,   -0.8,   -0.9,   -0.5,   -0.5,   -0.6,   -0.6,   -0.5,   -1.0,   -0.7,   -0.4,   -0.7,   -0.7,   -0.8,   -0.8,   -0.8,   -1.8,   -1.5,   -0.6,   -1.2,   -0.7,   -0.5,   -0.2,   -0.1,   -0.1,   -0.3,   -0.3,   -0.7,   -0.8,   -1.1,   -0.8,   -0.8,   -0.9,   -0.8,   -0.3,    0.0,   -0.1,   -0.3,   -0.3,   -0.7,   -0.3,   -0.2,   -0.2,   -0.4,   -0.5,   -0.4,   -0.6,   -0.6,   -0.5,   -0.3,   -0.2,   -0.3,   -0.2,   -0.3,   -0.4,   -0.5,   -0.1,   -0.2,    0.0,   -0.1,  999.0,    0.2,   -0.1,   -0.4
2003/10/17 05:55,    0.1,    0.1,    0.1,    0.1,   -0.0,   -0.0,   -0.0,   -0.0,   -0.0,    0.0,    0.0,    0.2,    0.0,    0.0,    0.0,    0.1,    0.0,    0.1,   -0.0,    0.1,    0.1,    0.2,    0.2,    0.1,    0.1,    0.1,    0.1,    0.1,    0.1,    0.0,   -0.0,   -0.1,   -0.1,   -0.1,   -0.1,   -0.0,   -0.1,   -0.2,   -0.1,   -0.2,   -0.2,   -0.4,   -0.3,   -0.3,   -0.4,   -0.5,   -0.4,   -0.5,   -0.4,   -0.3,   -0.5,   -0.2,   -0.3,   -0.7,   -0.7,   -0.5,   -0.4,   -0.7,   -0.5,   -0.4,   -0.6,   -0.7,   -1.0,   -0.5,   -0.8,   -0.9,   -0.7,   -1.0,   -0.8,   -0.7,   -0.8,   -0.9,   -0.9,   -1.0,   -0.9,   -0.9,   -0.6,   -0.5,   -0.3,    0.0,   -0.7,   -0.4,   -0.3,   -0.8,   -0.9,   -0.8,    0.1,   -0.8,   -1.1,  999.0,   -1.1,    0.2,    0.1,   -0.3,   -0.4,   -0.9,   -0.4,   -0.4,   -0.2,   -0.4,   -0.4,   -0.3,   -0.5,   -0.4,   -0.6,   -0.1,   -0.1,   -0.1,   -0.0,   -0.2,   -0.4,   -0.3,   -0.3,   -0.3,   -0.1,   -0.1,  999.0,    0.2,   -0.1,   -0.3
2003/10/17 06:05,   -0.1,   -0.0,   -0.2,    0.0,    0.0,   -0.0,   -0.0,   -0.0,    0.0,   -0.0,    0.0,    0.0,   -0.0,    0.0,    0.0,    0.0,    0.0,   -0.1,   -0.0,    0.2,   -0.0,   -0.1,   -0.1,   -0.1,   -0.2,   -0.2,   -0.2,   -0.2,   -0.2,   -0.2,   -0.0,   -0.1,   -0.1,   -0.2,   -0.2,   -0.1,   -0.3,   -0.3,   -0.4,   -0.4,   -0.4,   -0.6,   -0.6,   -0.5,   -0.5,   -0.6,   -0.4,   -0.7,   -0.5,   -0.7,   -0.6,   -0.3,   -0.6,   -0.8,   -0.7,   -0.6,   -0.6,   -0.8,   -0.6,   -0.4,   -0.7,   -0.8,   -0.6,   -0.5,   -0.7,   -0.7,   -0.8,   -1.2,   -0.7,   -0.6,   -0.8,   -0.8,   -0.8,   -1.0,   -0.6,   -0.6,   -0.4,   -0.2,   -0.2,   -0.1,   -0.3,   -0.1,   -0.4,   -0.5,   -0.7,  999.0,  999.0,   -0.9,   -1.2,  999.0,   -0.2,   -0.3,   -0.6,   -0.5,   -0.6,  999.0,   -0.3,   -0.2,   -0.2,   -0.3,   -0.3,   -0.4,   -2.4,   -0.5,   -1.0,    0.1,   -0.1,   -0.1,    0.1,    0.0,   -0.1,   -0.1,   -0.1,   -0.1,   -0.1,   -0.0,  999.0,   -0.1,   -0.1,  999.0
2003/10/17 06:15,   -0.1,    0.0,    0.1,    0.1,    0.0,   -0.0,   -0.1,   -0.1,   -0.1,   -0.0,    0.0,   -0.0,    0.0,   -0.0,   -0.0,   -0.1,   -0.1,    0.0,    0.1,   -0.1,   -0.1,   -0.1,   -0.1,   -0.1,   -0.0,   -0.1,   -0.1,   -0.1,   -0.0,   -0.2,    0.0,    0.0,    0.0,   -0.0,    0.0,   -0.0,   -0.2,   -0.3,   -0.4,   -0.3,   -0.2,   -0.3,   -0.3,   -0.2,   -0.2,   -0.0,   -0.2,   -0.4,   -0.2,   -0.3,   -0.3,   -0.3,   -0.3,   -0.6,   -0.4,   -0.5,   -0.2,   -0.4,   -0.4,   -0.3,   -0.3,   -0.2,    0.1,   -0.4,   -0.5,   -0.6,   -0.5,   -0.3,   -0.4,   -0.6,   -0.6,   -1.0,   -1.2,  999.0,   -0.4,   -0.6,   -0.2,   -0.0,    0.2,   -0.1,   -0.1,   -0.0,   -0.5,   -0.1,   -0.9,   -0.7,  999.0,  999.0,   -0.2,  999.0,   -0.3,    0.1,   -0.3,   -0.5,   -0.5,  999.0,   -0.4,   -0.0,   -0.2,   -0.2,   -0.3,   -0.4,   -0.9,   -0.3,   -0.5,   -0.1,   -0.2,   -0.2,   -0.1,   -0.4,   -0.2,   -0.2,   -0.2,   -0.3,   -0.0,    0.1,   -0.2,   -0.1,   -0.1,   -0.1
2003/10/17 06:25,   -0.1,   -0.2,   -0.0,    0.1,   -0.0,    0.0,   -0.0,    0.0,    0.0,    0.0,   -0.0,    0.0,    0.0,    0.0,   -0.1,   -0.1,   -0.0,   -0.1,    0.0,    0.1,    0.1,    0.1,    0.0,   -0.0,    0.0,    0.0,    0.0,   -0.0,    0.0,   -0.1,    0.0,    0.0,    0.1,   -0.0,    0.0,   -0.1,   -0.2,   -0.2,   -0.3,   -0.5,   -0.3,   -0.3,   -0.5,   -0.5,   -0.6,   -0.5,   -0.4,   -0.5,   -0.5,   -0.4,   -0.4,   -0.3,   -0.2,   -0.8,   -0.6,   -0.4,   -0.7,   -0.7,   -0.4,   -0.3,   -0.7,   -0.9,   -0.6,   -0.5,   -0.6,   -0.8,   -0.6,   -0.8,   -0.4,   -0.5,   -1.0,   -1.1,   -0.8,   -1.0,   -1.1,   -1.2,   -0.5,   -0.5,   -0.2,   -0.7,   -1.0,   -1.1,   -0.7,   -1.0,   -1.2,  999.0,  999.0,  999.0,   -1.0,   -1.2,   -1.1,   -0.7,   -0.4,   -0.6,   -0.7,   -1.2,   -0.7,   -0.3,   -0.2,   -0.1,   -0.3,   -0.4,  999.0,   -0.5,   -0.7,   -0.3,   -0.2,   -0.2,   -0.2,   -0.2,   -0.2,   -0.2,   -0.1,   -0.2,   -0.0,    0.1,   -0.1,   -0.1,   -0.4,  999.0
2003/10/17 06:35,   -0.0,    0.0,    0.0,    0.1,    0.1,   -0.0,    0.1,    0.1,    0.0,   -0.0,   -0.1,   -0.1,   -0.1,   -0.2,   -0.1,   -0.1,   -0.2,   -0.1,   -0.1,   -0.0,   -0.1,   -0.0,    0.0,    0.0,   -0.0,   -0.1,   -0.0,    0.0,    0.0,    0.0,    0.0,   -0.1,   -0.1,   -0.1,   -0.1,   -0.2,   -0.3,   -0.3,   -0.4,   -0.2,   -0.3,   -0.3,   -0.4,   -0.3,   -0.6,   -0.3,   -0.5,   -0.4,   -0.3,   -0.5,   -0.5,   -0.4,   -0.4,   -0.5,   -0.8,   -0.7,   -0.9,   -1.2,   -0.3,   -0.7,   -1.2,   -1.6,   -1.0,   -0.9,   -1.0,   -0.9,   -0.5,   -0.7,   -0.6,   -0.7,   -1.0,   -0.8,   -2.6,   -1.2,   -1.3,   -1.0,   -0.3,   -0.4,   -0.6,   -0.5,   -0.4,  999.0,   -0.5,   -1.1,   -1.9,  999.0,   -2.4,   -1.2,   -1.1,   -1.2,  999.0,   -0.5,   -0.4,   -0.7,   -0.8,   -1.0,   -0.4,   -0.0,   -0.6,   -0.1,   -0.2,   -0.4,  999.0,   -0.6,   -0.4,   -0.4,   -0.4,   -0.3,   -0.2,   -0.6,   -0.3,   -0.4,   -0.6,   -0.3,   -0.2,   -0.3,   -0.1,   -0.1,   -0.2,   -0.1
2003/10/17 06:45,   -0.2,   -0.1,   -0.1,   -0.2,   -0.2,   -0.2,   -0.1,   -0.0,   -0.1,    0.0,   -0.0,   -0.0,   -0.1,   -0.1,   -0.1,   -0.2,   -0.1,   -0.1,   -0.1,   -0.0,   -0.1,   -0.1,   -0.1,   -0.1,   -0.1,    0.0,    0.0,   -0.0,   -0.1,   -0.2,   -0.1,   -0.1,   -0.1,   -0.1,   -0.1,   -0.2,   -0.2,   -0.3,   -0.3,   -0.2,   -0.3,   -0.3,   -0.3,   -0.4,   -0.6,   -0.5,   -0.6,   -0.2,   -0.2,   -0.4,   -0.3,   -0.2,   -0.4,   -0.4,   -0.5,   -0.4,   -0.3,   -0.6,   -0.3,   -0.3,   -0.4,  999.0,   -0.5,   -0.8,   -0.9,   -0.9,   -0.8,   -0.8,   -0.8,   -1.0,   -0.9,   -1.6,   -0.7,   -1.2,   -1.1,  999.0,   -0.4,   -0.2,   -0.2,   -0.1,   -0.4,   -0.3,   -0.8,   -0.9,   -1.5,  999.0,  999.0,  999.0,   -0.8,   -1.4,   -0.4,   -0.5,  999.0,   -0.3,   -0.5,   -0.5,   -0.5,    0.1,   -0.0,    0.0,   -0.1,   -0.6,  999.0,   -0.8,   -0.5,   -0.4,   -0.3,   -0.3,   -0.1,   -0.4,   -0.4,    0.1,   -0.0,   -0.0,   -0.1,    0.2,    0.1,    0.0,    0.0,  999.0
2003/10/17 06:55,   -0.1,   -0.1,   -0.1,   -0.1,   -0.1,   -0.1,   -0.2,   -0.2,   -0.1,   -0.2,   -0.1,   -0.1,   -0.2,   -0.2,   -0.1,   -0.2,   -0.1,   -0.2,   -0.1,   -0.1,   -0.1,   -0.1,   -0.1,   -0.1,   -0.1,   -0.0,   -0.0,   -0.0,   -0.1,    0.0,    0.1,    0.0,    0.1,    0.1,    0.0,    0.0,    0.0,   -0.0,   -0.1,    0.0,   -0.0,   -0.1,   -0.1,   -0.2,   -0.2,   -0.1,   -0.3,   -0.3,   -0.1,   -0.2,   -0.3,   -0.0,   -0.3,   -0.5,   -0.3,   -0.3,   -0.4,   -0.6,   -0.2,   -0.3,   -0.6,   -0.4,   -0.7,   -0.7,   -0.9,   -0.6,   -0.7,   -0.7,   -0.5,   -0.7,   -0.8,   -0.7,  999.0,   -0.6,   -0.8,   -0.8,   -0.5,   -0.0,   -0.1,   -0.3,   -0.5,   -0.6,   -0.8,   -1.0,   -0.6,  999.0,  999.0,  999.0,   -0.4,    0.2,   -1.8,   -0.3,   -0.2,   -0.4,   -0.5,   -0.3,   -0.4,   -0.1,   -0.1,   -0.2,   -0.2,   -0.6,  999.0,   -0.4,   -0.1,   -0.0,    0.1,   -0.3,   -0.1,   -0.2,   -0.4,   -0.3,   -0.7,   -0.5,   -0.4,   -0.2,   -0.2,   -0.1,   -0.2,  999.0
2003/10/17 07:05,   -0.0,   -0.0,   -0.0,    0.0,    0.0,    0.1,    0.0,   -0.1,   -0.1,   -0.1,   -0.0,   -0.0,   -0.0,   -0.1,    0.0,   -0.1,    0.0,   -0.1,   -0.1,   -0.0,   -0.1,   -0.1,   -0.1,   -0.0,   -0.0,   -0.1,   -0.0,   -0.1,   -0.1,   -0.1,   -0.1,   -0.2,   -0.2,   -0.2,   -0.3,   -0.2,   -0.2,   -0.3,   -0.4,   -0.3,   -0.3,   -0.4,   -0.3,   -0.4,   -0.4,   -0.3,   -0.5,   -0.5,   -0.2,   -0.3,   -0.3,   -0.4,   -0.4,   -0.6,   -0.5,   -0.5,   -0.8,   -0.4,   -0.3,   -0.3,   -0.2,   -0.3,   -0.6,   -0.7,   -0.8,   -0.8,   -0.4,   -0.7,   -0.2,   -0.4,   -0.5,   -0.6,   -1.2,   -0.6,  999.0,   -1.0,   -0.3,   -0.1,   -0.2,   -0.3,   -0.9,   -0.4,   -0.2,   -0.9,  999.0,  999.0,  999.0,  999.0,   -0.8,   -0.9,  999.0,   -0.1,   -0.6,   -0.5,   -0.4,   -0.2,   -0.2,   -0.2,   -0.4,   -0.1,   -0.2,   -0.2,  999.0,   -0.3,  999.0,   -0.0,   -0.1,   -0.2,    0.0,   -0.1,   -0.1,   -0.2,   -0.5,   -0.3,   -0.2,    0.1,   -0.0,    0.2,    0.2,  999.0
2003/10/17 07:15,    0.0,   -0.0,   -0.0,   -0.0,    0.0,    0.0,    0.1,    0.1,    0.1,    0.1,    0.1,    0.1,    0.1,   -0.1,   -0.1,   -0.2,   -0.1,   -0.1,   -0.1,   -0.1,   -0.1,   -0.1,   -0.1,   -0.1,   -0.0,   -0.1,   -0.0,   -0.1,   -0.2,   -0.2,   -0.1,   -0.1,   -0.1,   -0.1,   -0.0,   -0.2,   -0.3,   -0.3,   -0.3,   -0.5,   -0.3,   -0.3,   -0.4,   -0.5,   -0.6,   -0.7,   -0.6,   -0.5,   -0.3,   -0.4,   -0.4,   -0.4,   -0.4,   -0.5,   -0.4,   -0.5,   -0.6,   -0.4,   -0.6,   -0.5,   -0.9,   -0.4,   -0.7,   -1.0,   -1.1,   -0.8,   -0.7,   -0.5,   -0.3,   -0.3,   -0.5,   -0.7,   -0.5,   -0.8,   -0.4,   -0.5,   -0.0,    0.1,   -0.1,   -0.2,   -0.2,   -0.4,   -0.8,   -1.0,  999.0,  999.0,  999.0,  999.0,  999.0,   -1.9,   -0.2,   -0.0,    0.3,   -0.1,   -0.2,   -0.1,   -0.1,   -0.1,   -0.2,   -0.0,   -0.1,   -0.3,  999.0,   -0.6,  999.0,   -0.3,   -0.1,   -0.2,    0.1,   -0.1,    0.0,   -0.2,   -0.1,    0.2,   -0.5,   -0.0,   -0.2,    0.1,   -0.0,  999.0
2003/10/17 07:25,   -0.1,   -0.1,   -0.1,   -0.0,    0.0,   -0.0,   -0.1,   -0.1,   -0.1,   -0.0,    0.0,    0.1,   -0.0,    0.0,   -0.0,   -0.0,   -0.0,   -0.1,   -0.1,   -0.0,   -0.0,   -0.0,   -0.1,    0.0,    0.0,    0.0,   -0.1,   -0.1,   -0.1,   -0.2,   -0.1,   -0.1,   -0.1,   -0.1,   -0.2,   -0.2,   -0.2,   -0.3,   -0.3,   -0.2,   -0.2,   -0.3,   -0.3,   -0.5,   -0.5,   -0.5,   -0.5,   -0.5,   -0.2,   -0.4,   -0.4,   -0.4,   -0.6,   -0.5,   -0.7,   -0.7,   -0.7,   -0.3,   -0.3,   -0.8,   -0.6,   -0.4,   -0.5,   -0.7,   -0.8,   -0.9,   -0.8,   -0.7,   -0.3,   -0.5,   -0.6,   -0.6,   -0.7,  999.0,   -0.8,   -0.5,   -0.1,   -0.0,   -0.1,   -0.2,   -0.3,   -0.4,   -0.5,   -0.6,   -1.1,  999.0,  999.0,   -0.5,   -0.6,  999.0,   -0.4,   -0.2,   -0.2,   -0.3,   -0.5,   -0.5,   -0.1,   -0.2,   -0.2,   -0.5,   -0.6,   -0.5,   -0.2,  999.0,    0.0,   -0.2,   -0.2,   -0.2,   -0.0,   -0.0,   -0.1,   -0.2,   -0.1,   -0.3,   -0.3,   -0.2,   -0.2,  999.0,   -0.1,   -0.2
2003/10/17 07:35,    0.1,    0.1,    0.1,    0.1,    0.0,    0.1,   -0.0,   -0.0,   -0.0,    0.0,   -0.0,   -0.1,   -0.1,   -0.1,   -0.1,   -0.1,   -0.0,   -0.1,   -0.1,   -0.2,   -0.1,   -0.1,    0.0,    0.0,    0.0,    0.0,    0.0,    0.0,   -0.1,   -0.1,   -0.1,   -0.1,   -0.1,   -0.3,   -0.2,   -0.2,   -0.2,   -0.1,   -0.2,   -0.1,   -0.1,   -0.3,   -0.4,   -0.3,   -0.4,   -0.5,   -0.5,   -0.3,   -0.2,   -0.1,   -0.3,   -0.4,   -0.6,   -0.6,   -0.6,   -0.6,   -0.6,   -0.1,   -0.1,   -0.3,   -0.2,   -0.6,   -0.7,   -0.7,   -0.8,   -0.6,   -1.2,   -0.5,   -0.6,   -0.4,   -0.5,   -0.6,    0.0,  999.0,   -1.1,   -0.2,   -0.2,    0.1,    0.4,    0.1,   -0.2,   -0.4,   -0.1,   -0.4,   -0.5,   -0.2,  999.0,   -0.7,   -0.4,   -0.3,   -0.2,    0.1,    0.2,    0.0,   -0.1,    0.2,    0.1,   -0.2,   -0.1,   -0.3,   -0.3,   -0.4,  999.0,    0.1,  999.0,   -0.1,   -0.0,   -0.3,   -0.2,   -0.3,   -0.3,   -0.2,   -0.5,   -0.2,   -0.2,   -0.1,   -0.0,   -0.2,    0.0,  999.0
2003/10/17 07:45,   -0.1,   -0.0,   -0.1,   -0.1,   -0.0,    0.1,   -0.1,   -0.0,   -0.1,   -0.0,   -0.0,   -0.1,   -0.1,   -0.1,   -0.2,   -0.1,   -0.0,    0.0,   -0.1,    0.0,   -0.0,   -0.0,    0.0,    0.1,    0.1,    0.1,    0.0,    0.1,    0.0,    0.0,   -0.1,   -0.1,   -0.1,   -0.1,   -0.1,   -0.2,   -0.2,   -0.2,   -0.2,   -0.3,   -0.2,   -0.4,   -0.4,   -0.4,   -0.3,   -0.7,   -0.6,   -0.4,   -0.2,   -0.3,   -0.5,   -0.4,   -0.6,   -0.6,   -0.6,   -0.6,   -0.4,   -0.3,   -0.1,   -0.3,   -0.5,   -0.8,   -0.7,   -0.8,    0.2,   -0.6,   -0.1,   -0.8,   -0.5,   -0.4,   -0.6,   -0.7,   -0.8,  999.0,  999.0,   -1.0,   -0.2,   -0.1,   -0.3,   -0.1,   -0.4,   -0.6,   -0.6,   -0.5,   -0.7,   -0.5,  999.0,   -0.4,   -0.5,   -0.5,   -0.7,   -0.1,   -0.1,   -0.2,   -0.1,   -0.4,    0.0,   -0.1,   -0.3,   -0.2,   -0.2,   -0.4,   -0.3,   -0.5,   -0.0,   -0.2,   -0.3,   -0.3,   -0.2,   -0.3,   -0.2,   -0.2,   -0.2,   -0.4,   -0.3,   -0.1,   -0.2,   -0.1,   -0.3,   -0.2
2003/10/17 07:55,   -0.1,    0.1,   -0.1,    0.1,   -0.0,   -0.1,   -0.1,   -0.0,    0.0,    0.1,    0.0,    0.0,    0.1,    0.1,    0.2,    0.1,    0.1,    0.1,    0.1,    0.1,    0.1,    0.1,    0.2,    0.1,    0.1,    0.1,    0.0,    0.0,   -0.0,   -0.0,   -0.0,   -0.1,   -0.1,   -0.0,   -0.1,   -0.2,   -0.2,   -0.2,   -0.2,   -0.2,   -0.3,   -0.4,   -0.5,   -0.5,   -0.5,   -0.6,   -0.5,   -0.5,   -0.4,   -0.5,   -0.5,   -0.5,   -0.7,   -0.8,   -0.6,   -0.7,   -0.6,   -0.7,   -0.3,   -0.4,   -0.5,   -0.3,   -1.0,    0.0,   -0.7,   -1.2,   -0.6,   -0.7,   -0.5,   -0.8,   -0.8,   -0.8,   -1.1,  999.0,   -1.6,   -1.0,   -0.5,   -0.3,   -0.4,   -0.3,   -0.3,   -0.8,   -0.8,   -0.8,   -0.7,   -0.7,  999.0,   -0.8,   -0.9,   -0.2,   -0.8,   -0.1,   -0.2,   -0.4,   -0.4,   -0.8,   -0.0,   -0.1,    0.3,   -0.2,   -0.1,   -0.1,   -0.2,  999.0,    0.2,  999.0,   -0.2,   -0.1,   -0.1,   -0.3,   -0.1,   -0.3,   -0.2,   -0.2,   -0.3,   -0.2,   -0.3,  999.0,   -0.0,  999.0
2003/10/17 08:05,    0.0,    0.1,    0.1,    0.1,    0.2,   -0.0,   -0.0,    0.0,    0.1,    0.0,    0.0,    0.0,   -0.0,   -0.0,   -0.0,   -0.0,    0.0,   -0.1,   -0.1,   -0.1,   -0.1,   -0.1,   -0.1,   -0.2,   -0.2,   -0.2,   -0.2,   -0.2,   -0.1,   -0.1,   -0.2,   -0.2,   -0.1,   -0.1,   -0.2,   -0.2,   -0.1,   -0.2,   -0.2,   -0.2,   -0.3,   -0.3,   -0.3,   -0.5,   -0.3,   -0.8,   -0.6,   -0.4,   -0.3,   -0.3,   -0.3,   -0.5,   -0.6,   -0.6,   -0.5,   -0.7,   -0.6,   -0.7,   -0.4,   -0.1,   -0.6,   -1.1,   -0.5,  999.0,   -0.8,   -1.7,   -0.7,   -0.6,   -0.4,   -0.7,   -0.8,   -0.5,  999.0,  999.0,  999.0,   -0.5,   -0.5,   -0.3,   -0.6,   -0.1,   -0.4,   -1.3,   -0.9,   -0.7,   -0.8,   -0.5,   -2.3,  999.0,    4.5,    0.7,   -0.6,   -0.3,   -0.4,   -0.7,   -0.4,   -0.7,    0.1,   -0.0,   -0.0,   -0.1,    0.2,    0.0,  999.0,  999.0,  999.0,    0.0,   -0.1,    0.0,   -0.0,   -0.0,   -0.1,    0.1,   -0.1,   -0.3,   -0.3,    0.2,   -0.1,  999.0,  999.0,  999.0
2003/10/17 08:15,   -0.2,   -0.1,   -0.1,   -0.0,   -0.0,    0.0,   -0.0,   -0.1,    0.0,    0.0,    0.0,    0.0,    0.1,    0.1,    0.1,   -0.0,    0.0,   -0.0,    0.0,   -0.1,   -0.0,   -0.1,   -0.1,   -0.1,   -0.2,   -0.1,   -0.1,   -0.1,   -0.1,   -0.1,   -0.0,   -0.1,   -0.1,   -0.1,   -0.1,   -0.2,   -0.2,   -0.1,   -0.3,   -0.2,   -0.2,   -0.2,   -0.3,   -0.3,   -0.4,   -0.5,   -0.4,   -0.3,   -0.3,   -0.3,   -0.2,   -0.3,   -0.5,   -0.4,   -0.4,   -0.6,   -0.4,   -0.6,   -0.4,   -0.5,   -0.7,   -0.8,   -0.8,   -0.5,   -0.6,   -0.5,   -0.8,   -0.7,   -0.7,   -0.6,   -0.8,   -1.0,  999.0,   -0.7,  999.0,   -0.5,   -0.2,   -0.4,   -0.3,   -0.2,    0.0,   -0.6,   -0.3,   -0.8,   -0.6,   -0.7,   -0.8,   -0.8,   -0.4,   -0.6,   -0.5,   -0.2,   -0.4,   -0.3,   -0.5,   -0.8,   -0.3,   -0.1,   -0.3,   -0.2,   -0.4,   -0.6,   -0.6,   -1.1,   -0.4,   -0.2,   -0.2,   -0.2,   -0.1,   -0.3,   -0.4,   -0.4,   -0.3,   -0.2,   -0.3,   -0.1,    0.1,  999.0,   -0.0,    0.1
2003/10/17 08:25,    0.1,    0.1,    0.1,    0.1,   -0.0,   -0.1,   -0.1,   -0.0,    0.0,   -0.0,    0.0,   -0.0,   -0.0,   -0.0,   -0.0,   -0.1,   -0.0,   -0.1,   -0.1,   -0.1,    0.0,   -0.1,   -0.1,   -0.1,   -0.1,   -0.1,   -0.0,   -0.1,    0.0,   -0.1,   -0.0,   -0.1,   -0.0,   -0.0,   -0.1,   -0.2,   -0.0,   -0.0,   -0.1,   -0.1,   -0.1,   -0.1,   -0.3,   -0.4,   -0.4,   -0.3,   -0.5,   -0.3,   -0.2,   -0.3,   -0.3,   -0.3,   -0.4,   -0.4,   -0.6,   -0.6,   -0.8,   -0.3,   -0.3,   -0.4,   -0.5,   -0.4,   -0.9,  999.0,   -0.2,  999.0,   -0.6,   -0.8,   -0.5,   -0.5,   -1.1,   -0.2,    0.1,  999.0,    0.4,  999.0,   -0.2,   -0.4,   -0.6,   -0.5,   -0.2,   -0.4,    0.1,   -0.7,   -0.6,   -0.3,   -0.5,   -0.6,   -0.3,   -0.6,   -0.3,   -0.4,   -0.3,   -0.6,   -0.5,   -0.9,   -0.6,   -0.5,   -0.4,   -0.4,   -0.2,   -0.5,  999.0,  999.0,   -0.5,  999.0,   -0.4,   -0.5,  999.0,   -0.4,  999.0,   -0.2,   -0.4,   -0.6,   -0.3,  999.0,   -0.1,  999.0,    0.0,   -0.2
2003/10/17 08:35,   -0.1,    0.0,   -0.0,   -0.0,    0.0,    0.1,   -0.1,   -0.1,   -0.1,   -0.1,   -0.1,   -0.1,   -0.2,   -0.0,   -0.0,   -0.0,    0.1,    0.0,    0.0,    0.0,    0.0,    0.0,    0.0,    0.1,    0.1,    0.1,    0.1,    0.0,    0.1,    0.1,    0.1,    0.0,   -0.0,   -0.0,   -0.1,   -0.1,   -0.1,   -0.2,   -0.3,   -0.2,   -0.3,   -0.3,   -0.3,   -0.4,   -0.3,   -0.5,   -0.4,   -0.3,   -0.3,   -0.3,   -0.5,   -0.7,   -0.7,   -0.6,   -0.4,   -0.5,   -0.5,   -0.4,   -0.1,   -0.3,   -0.3,   -0.6,   -1.3,   -0.6,   -0.7,   -0.7,   -0.7,   -0.7,   -0.8,   -0.6,   -0.6,   -1.1,  999.0,    0.5,  999.0,   -0.8,   -0.9,   -0.6,   -1.0,   -0.6,   -0.1,   -0.5,   -0.5,   -0.5,   -0.3,   -0.3,   -0.7,   -0.8,   -1.0,   -0.8,   -0.3,   -0.4,   -0.6,   -0.7,   -0.9,   -0.5,   -0.3,   -0.4,   -0.5,   -0.6,   -0.3,   -0.2,   -0.6,  999.0,   -0.2,   -0.2,   -0.1,   -0.3,   -0.5,   -0.2,   -0.3,   -0.4,   -0.4,   -0.6,   -0.5,   -0.4,  999.0,   -0.2,  999.0,   -0.2
2003/10/17 08:45,    0.2,   -0.0,    0.1,   -0.1,   -0.2,   -0.2,   -0.3,   -0.0,    0.1,    0.0,    0.0,    0.0,   -0.0,   -0.0,   -0.0,    0.0,    0.1,   -0.0,   -0.0,   -0.1,   -0.2,   -0.2,   -0.1,   -0.1,   -0.1,   -0.1,   -0.1,   -0.1,   -0.1,   -0.2,   -0.1,   -0.1,   -0.1,   -0.1,   -0.2,   -0.3,   -0.2,   -0.3,   -0.2,   -0.2,   -0.3,   -0.5,   -0.3,   -0.5,   -0.4,   -0.6,   -0.4,   -0.3,   -0.5,   -0.5,   -0.5,   -0.5,   -0.7,   -0.5,   -0.4,   -0.7,   -0.6,   -0.7,   -0.5,   -0.5,  999.0,  999.0,   -0.7,  999.0,   -1.1,   -0.9,   -1.1,   -0.6,   -0.8,   -0.9,   -0.9,  999.0,   -1.8,  999.0,  999.0,   -0.7,   -0.6,   -0.3,   -0.6,   -0.4,   -0.1,   -0.6,   -0.9,   -0.6,   -1.1,    2.3,  999.0,   -0.6,   -0.7,   -0.9,   -0.0,   -0.3,   -0.5,   -0.7,   -0.7,  999.0,   -0.0,   -0.3,   -0.4,   -0.6,   -0.2,   -0.3,   -0.7,  999.0,   -0.2,  999.0,   -0.0,   -0.1,   -0.1,   -0.1,   -0.3,   -0.3,   -0.3,    0.0,  999.0,   -0.5,   -0.1,   -0.4,   -0.3,   -0.4
2003/10/17 08:55,   -0.1,   -0.2,   -0.2,   -0.1,   -0.0,    0.2,    0.1,   -0.1,   -0.0,   -0.1,   -0.0,   -0.0,   -0.0,   -0.0,   -0.1,   -0.0,   -0.0,    0.0,   -0.1,   -0.0,   -0.1,   -0.1,   -0.0,   -0.0,   -0.2,   -0.1,   -0.1,   -0.0,   -0.1,   -0.0,   -0.1,   -0.2,   -0.1,   -0.2,   -0.3,   -0.2,   -0.2,   -0.4,   -0.3,   -0.4,   -0.6,   -0.3,   -0.2,   -0.6,   -0.4,   -0.4,   -0.3,    0.0,   -0.6,   -0.2,   -0.5,   -0.5,   -0.6,   -0.5,   -0.2,   -0.3,   -0.5,   -0.6,   -0.5,   -0.2,  999.0,   -0.5,  999.0,  999.0,  999.0,  999.0,   -1.2,   -0.1,   -0.2,   -0.6,   -0.4,  999.0,  999.0,  999.0,  999.0,   -0.5,   -0.4,   -0.4,   -0.3,   -0.3,   -0.3,   -0.5,   -0.2,  999.0,  999.0,   -0.8,  999.0,   -0.8,   -0.0,    0.5,    0.1,    0.1,   -0.1,   -0.3,   -0.5,   -0.5,   -0.0,   -0.0,   -0.1,   -0.3,   -0.1,   -0.3,   -0.2,    0.3,   -0.2,   -0.2,   -0.3,   -0.1,   -0.3,   -0.6,   -0.4,   -0.3,   -0.5,  999.0,   -0.4,   -0.1,   -0.2,   -0.3,   -0.1,   -0.2
2003/10/17 09:05,   -0.1,   -0.0,   -0.1,   -0.2,   -0.0,   -0.1,   -0.1,   -0.2,   -0.1,   -0.1,   -0.1,   -0.1,   -0.1,   -0.1,   -0.0,    0.1,    0.0,   -0.0,   -0.0,    0.0,   -0.0,   -0.0,   -0.1,   -0.1,   -0.1,   -0.1,   -0.1,   -0.0,   -0.1,   -0.0,    0.0,   -0.1,   -0.0,   -0.1,   -0.2,   -0.1,   -0.1,   -0.1,   -0.2,   -0.3,   -0.3,   -0.1,   -0.3,   -0.4,  999.0,   -0.4,   -0.3,   -0.3,   -0.4,   -0.5,   -0.5,   -0.4,   -0.3,   -0.3,   -0.4,   -0.5,   -0.4,   -0.6,   -0.5,   -0.3,   -0.6,   -0.5,   -0.7,   -0.6,   -0.8,   -0.3,   -0.9,   -0.4,   -0.6,   -0.9,   -1.0,   -0.7,   -0.4,   -0.7,   -0.9,   -0.4,   -0.3,   -0.2,   -0.1,   -0.2,   -0.2,   -0.6,   -0.7,   -0.6,  999.0,  999.0,   -0.9,  999.0,   -0.0,    0.3,    0.2,   -0.2,   -0.3,   -0.3,   -0.5,   -0.1,   -0.1,    0.3,   -0.0,   -0.1,   -0.1,   -0.2,   -0.1,    0.2,   -0.2,   -0.1,   -0.1,   -0.1,   -0.2,   -0.4,   -0.1,   -0.1,   -0.1,    0.2,   -0.5,   -0.1,   -0.1,   -0.2,   -0.2,   -0.1
2003/10/17 09:15,    0.0,   -0.1,   -0.0,   -0.1,   -0.1,   -0.1,   -0.1,   -0.1,   -0.1,   -0.1,   -0.1,   -0.1,   -0.1,   -0.1,   -0.1,   -0.1,   -0.1,   -0.1,   -0.0,   -0.1,   -0.1,   -0.1,   -0.1,   -0.1,   -0.0,   -0.2,   -0.0,   -0.1,   -0.0,   -0.1,   -0.1,   -0.1,   -0.1,   -0.1,   -0.1,    0.0,   -0.0,   -0.1,   -0.1,   -0.1,   -0.1,   -0.1,   -0.4,   -0.5,   -0.2,   -0.2,   -0.2,   -0.2,   -0.4,   -0.3,   -0.2,   -0.5,   -0.5,   -0.5,   -0.3,   -0.5,   -0.5,   -0.5,   -0.5,   -0.4,   -0.5,   -0.6,   -0.5,   -0.6,   -0.9,   -0.5,   -0.7,   -0.8,   -0.5,   -0.7,   -0.6,   -0.4,   -0.2,   -0.9,   -0.5,   -0.2,   -0.3,   -0.6,   -0.5,   -0.3,   -0.6,   -1.3,   -0.7,  999.0,  999.0,  999.0,  999.0,  999.0,    0.1,    0.5,    0.0,   -0.2,   -0.4,   -0.4,   -0.6,   -0.9,   -0.2,   -0.3,   -0.5,   -0.4,   -0.3,   -0.3,   -0.4,  999.0,   -0.7,   -0.4,   -0.3,   -0.2,   -0.4,   -0.4,   -0.4,   -0.3,   -0.4,   -0.5,   -0.5,   -0.4,   -0.2,   -0.3,   -0.5,  999.0
2003/10/17 09:25,    0.0,   -0.1,   -0.1,   -0.0,    0.0,    0.1,    0.1,    0.1,    0.0,    0.1,    0.0,    0.1,    0.1,    0.0,    0.1,    0.1,    0.1,    0.1,    0.0,    0.0,    0.1,   -0.1,   -0.0,   -0.1,   -0.1,   -0.1,   -0.1,   -0.1,   -0.2,   -0.2,   -0.2,   -0.2,   -0.3,   -0.2,   -0.3,   -0.3,   -0.3,   -0.3,   -0.3,   -0.5,   -0.4,   -0.4,   -0.5,   -0.6,   -0.3,   -0.3,   -0.2,   -0.3,   -0.4,   -0.4,   -0.2,   -0.6,   -0.8,   -0.8,   -0.4,   -0.3,   -0.3,   -0.6,   -0.8,   -0.5,   -0.9,   -0.8,   -0.7,   -0.7,   -0.9,   -0.7,   -1.0,   -0.8,   -0.7,   -0.9,   -0.9,   -0.8,   -0.6,   -0.9,   -0.7,   -0.5,   -0.5,   -0.6,   -0.5,   -0.3,   -0.6,   -0.7,  999.0,  999.0,  999.0,  999.0,   -0.5,   -0.4,    0.2,    0.0,   -0.3,   -0.3,   -0.4,   -0.5,   -0.7,   -0.7,   -0.2,   -0.5,   -0.4,   -0.6,   -0.3,   -0.3,   -0.3,  999.0,   -0.3,   -0.4,   -0.3,   -0.3,   -0.2,   -0.5,   -0.3,   -0.3,   -0.5,   -0.2,   -0.4,   -0.4,   -0.1,   -0.1,   -0.1,   -0.1
2003/10/17 09:35,   -0.1,   -0.2,   -0.2,   -0.1,   -0.0,   -0.1,   -0.1,    0.1,    0.0,   -0.0,    0.0,   -0.0,   -0.1,   -0.0,   -0.1,   -0.2,   -0.2,   -0.2,   -0.1,   -0.2,   -0.1,   -0.1,   -0.1,   -0.1,   -0.1,   -0.2,   -0.1,   -0.0,   -0.1,   -0.1,   -0.1,   -0.2,   -0.2,   -0.2,   -0.2,   -0.2,   -0.4,   -0.3,   -0.3,   -0.3,   -0.3,   -0.2,   -0.2,   -0.3,   -0.3,   -0.2,   -0.2,   -0.3,   -0.4,   -0.3,   -0.4,   -0.5,   -0.5,   -0.4,   -0.3,   -0.2,   -0.3,   -0.3,   -0.3,   -0.2,   -0.2,   -0.3,   -0.2,   -0.3,   -0.6,   -0.5,   -0.6,   -0.7,   -0.6,   -0.4,   -0.4,   -0.2,    0.1,   -0.3,   -0.3,    0.0,   -0.1,   -0.3,   -0.4,   -0.1,    0.1,   -0.2,  999.0,  999.0,  999.0,  999.0,   -0.1,   -0.2,    0.2,   -0.1,   -0.1,   -0.1,   -0.6,   -0.6,   -0.6,   -0.7,   -0.3,   -0.2,   -0.3,   -0.2,   -0.3,   -0.4,   -0.6,   -0.4,   -0.2,   -0.6,   -0.4,   -0.2,   -0.4,   -0.8,   -0.2,   -0.4,   -0.4,   -0.3,   -0.5,   -0.5,   -0.3,   -0.3,   -0.3,  999.0
2003/10/17 09:45,   -0.3,   -0.2,   -0.1,   -0.1,    0.0,   -0.0,   -0.0,   -0.1,   -0.0,   -0.0,   -0.1,   -0.1,   -0.1,   -0.0,   -0.1,   -0.1,   -0.1,   -0.1,   -0.2,   -0.2,   -0.2,   -0.2,   -0.2,   -0.2,   -0.2,   -0.2,   -0.1,   -0.1,   -0.2,   -0.1,   -0.2,   -0.2,   -0.2,   -0.2,   -0.2,   -0.3,   -0.3,   -0.3,   -0.3,   -0.2,   -0.3,   -0.3,   -0.4,   -0.2,   -0.2,   -0.3,   -0.3,   -0.3,   -0.5,   -0.3,   -0.4,   -0.7,   -0.7,   -0.5,   -0.4,   -0.6,   -0.8,   -0.7,   -0.8,   -0.5,   -0.6,   -0.2,   -0.4,   -0.5,   -0.6,   -0.7,   -0.7,   -0.8,   -0.7,   -0.4,   -0.5,   -0.6,  999.0,   -0.3,   -1.1,   -0.5,  999.0,   -0.5,   -0.8,   -0.5,   -0.2,   -0.3,   -0.2,  999.0,  999.0,  999.0,  999.0,  999.0,   -0.1,    0.1,   -0.2,   -0.1,   -0.5,   -0.5,   -0.6,  999.0,   -0.6,   -0.2,   -0.3,   -0.5,   -0.2,   -0.1,   -0.3,  999.0,   -0.4,   -0.3,   -0.4,   -0.3,   -0.6,   -0.4,   -0.5,   -0.4,   -0.3,   -0.3,   -0.5,   -0.4,   -0.1,   -0.3,   -0.2,   -0.1
2003/10/17 09:55,   -0.1,   -0.1,   -0.1,   -0.1,    0.2,   -0.0,   -0.0,    0.0,   -0.1,    0.1,    0.1,    0.2,    0.1,    0.0,    0.0,    0.0,    0.0,   -0.1,   -0.1,   -0.1,   -0.1,   -0.2,   -0.1,   -0.1,   -0.1,   -0.0,    0.0,    0.1,    0.1,    0.0,   -0.0,   -0.1,   -0.1,   -0.1,   -0.1,   -0.1,   -0.2,   -0.1,   -0.3,   -0.2,   -0.2,   -0.3,   -0.3,   -0.4,   -0.2,   -0.2,   -0.2,   -0.3,   -0.3,   -0.0,   -0.2,   -0.3,   -0.4,   -0.2,   -0.3,   -0.4,   -0.3,   -0.5,   -0.5,   -0.5,    0.0,  999.0,   -0.5,   -0.6,   -0.5,   -0.5,   -0.6,   -0.7,   -0.4,   -0.7,   -0.8,   -0.2,   -1.0,   -0.6,   -1.0,   -0.8,   -0.3,   -0.9,   -0.9,   -0.6,   -0.5,   -0.3,   -0.7,  999.0,  999.0,  999.0,   -1.1,   -1.2,  999.0,   -0.3,   -0.5,   -0.7,   -0.8,   -0.8,   -0.8,   -0.9,   -0.3,   -0.5,   -0.2,   -0.2,   -0.5,   -0.5,   -0.5,   -1.0,   -0.5,   -0.3,   -0.4,   -0.2,   -0.5,   -0.4,   -0.4,   -0.4,   -0.3,   -0.3,   -0.2,   -0.1,    0.1,  999.0,   -0.3,    0.0
2003/10/17 10:05,    0.1,   -0.0,    0.2,    0.1,   -0.1,   -0.1,   -0.1,  999.0,   -0.2,   -0.2,   -0.2,   -0.2,   -0.2,   -0.2,   -0.2,   -0.2,   -0.2,   -0.2,   -0.2,   -0.2,   -0.2,   -0.2,   -0.2,   -0.1,   -0.1,   -0.1,   -0.0,   -0.0,   -0.1,   -0.1,    0.1,   -0.0,    0.0,   -0.0,   -0.1,   -0.1,    0.0,   -0.1,   -0.2,   -0.2,    0.1,   -0.1,   -0.2,   -0.3,   -0.4,   -0.3,   -0.3,   -0.2,   -0.3,   -0.1,   -0.1,   -0.2,   -0.4,   -0.4,   -0.3,   -0.5,   -0.5,   -0.6,   -0.4,   -0.3,   -0.2,   -0.4,   -0.4,   -0.4,   -1.1,   -0.8,   -0.8,   -1.0,   -0.4,   -0.4,   -0.4,  999.0,  999.0,   -0.8,   -1.0,   -0.9,   -0.5,   -0.6,   -0.8,   -0.8,   -0.4,   -0.2,   -0.9,  999.0,  999.0,  999.0,  999.0,  999.0,   -0.3,    0.3,   -0.7,   -0.5,   -0.4,   -0.7,   -0.8,   -1.1,   -0.3,   -0.2,   -0.2,   -0.5,   -0.7,   -0.5,   -0.6,  999.0,   -0.3,   -0.2,   -0.4,   -0.3,   -0.2,   -0.4,   -0.4,   -0.4,   -0.3,   -0.3,   -0.5,   -0.2,   -0.1,  999.0,   -0.2,   -0.3
2003/10/17 10:15,   -0.0,    0.0,    0.1,    0.1,    0.0,   -0.1,   -0.1,   -0.1,   -0.2,   -0.0,    0.0,    0.1,    0.2,    0.2,    0.2,    0.1,    0.1,   -0.0,    0.0,   -0.0,   -0.0,   -0.1,    0.0,   -0.0,   -0.0,    0.1,   -0.0,   -0.1,   -0.1,   -0.1,   -0.1,   -0.2,   -0.1,   -0.3,   -0.2,   -0.3,   -0.3,   -0.4,   -0.4,   -0.5,   -0.4,   -0.4,   -0.5,   -0.5,   -0.4,   -0.3,   -0.5,   -0.5,   -0.5,   -0.5,   -0.5,   -0.9,   -0.3,   -0.4,   -0.6,   -0.8,   -0.5,   -0.2,  999.0,   -0.8,    0.5,  999.0,   -0.9,   -1.0,   -1.0,   -0.5,   -0.8,   -0.6,   -0.8,   -0.5,   -0.8,  999.0,   -0.8,   -1.3,   -1.0,   -0.3,   -0.8,   -0.9,   -1.2,   -0.6,   -1.0,   -0.6,   -0.9,   -0.9,  999.0,  999.0,  999.0,   -0.5,   -0.3,   -0.1,   -0.4,   -0.8,   -0.5,   -0.9,   -0.7,   -1.0,   -0.7,   -0.3,   -0.3,   -0.2,   -0.1,   -0.3,   -0.2,  999.0,   -0.3,   -0.1,   -0.2,   -0.2,   -0.1,   -0.2,   -0.0,   -0.2,   -0.0,   -0.2,   -0.3,  999.0,  999.0,   -0.3,   -0.3,   -0.3
2003/10/17 10:25,   -0.4,   -0.3,   -0.2,   -0.2,   -0.4,   -0.3,   -0.2,   -0.2,   -0.2,   -0.2,   -0.1,    0.0,    0.1,    0.0,    0.0,    0.1,    0.1,    0.1,   -0.0,    0.0,   -0.0,    0.1,   -0.0,   -0.1,    0.1,   -0.0,    0.1,    0.1,   -0.0,   -0.1,   -0.1,   -0.2,    0.0,   -0.1,    0.1,    0.1,    0.0,    0.0,   -0.1,    0.1,    0.0,   -0.0,   -0.1,   -0.2,   -0.3,   -0.3,   -0.1,   -0.3,   -0.2,   -0.0,   -0.3,   -0.3,   -0.5,   -0.4,   -0.3,   -0.2,   -0.1,   -0.2,   -0.5,   -0.3,   -0.4,  999.0,   -0.6,   -0.9,   -0.4,   -0.7,   -1.0,   -0.6,   -0.5,   -0.6,   -0.8,   -0.7,   -0.4,   -0.5,   -0.5,   -0.2,   -0.4,   -0.5,    0.1,  999.0,  999.0,   -0.3,   -0.5,   -0.8,  999.0,  999.0,  999.0,  999.0,    0.2,    0.1,   -0.1,    0.0,   -0.4,   -0.2,   -0.5,   -0.4,   -0.3,   -0.3,    0.0,   -0.0,    0.2,   -0.0,    0.1,    0.2,    0.1,    0.1,   -0.1,   -0.2,  999.0,   -0.2,   -0.2,   -0.3,   -0.4,   -0.3,   -0.3,   -0.2,   -0.2,  999.0,   -0.3,   -0.4
2003/10/17 10:35,   -0.0,    0.0,    0.1,    0.1,    0.1,    0.1,    0.0,   -0.1,   -0.0,   -0.0,   -0.0,   -0.0,   -0.0,   -0.0,   -0.0,   -0.0,   -0.1,   -0.1,   -0.0,    0.0,   -0.1,   -0.0,   -0.0,   -0.1,   -0.1,   -0.1,   -0.1,   -0.1,   -0.1,   -0.1,   -0.1,   -0.1,   -0.2,   -0.2,   -0.3,   -0.3,   -0.2,   -0.3,   -0.4,   -0.3,   -0.4,   -0.4,   -0.4,   -0.4,   -0.4,   -0.4,   -0.4,   -0.4,   -0.4,   -0.5,   -0.6,   -0.8,   -0.7,   -0.4,   -0.5,   -0.4,   -0.4,   -0.5,   -1.0,   -0.8,   -0.9,   -0.6,   -0.7,   -0.6,   -0.7,   -0.9,   -0.5,   -0.7,   -0.9,   -0.8,   -0.7,   -1.1,   -0.3,   -0.3,   -0.9,   -0.6,   -0.6,   -0.7,   -0.7,   -0.6,   -0.8,   -1.0,   -0.8,   -0.8,   -0.0,  999.0,  999.0,  999.0,   -0.2,    0.4,   -0.3,   -0.5,   -0.4,   -0.6,   -0.6,   -0.5,   -0.6,   -0.2,    0.0,    0.1,   -0.3,   -0.3,   -0.2,   -0.3,   -0.1,   -0.3,   -0.3,   -0.3,   -0.1,   -0.2,   -0.5,   -0.4,   -0.5,   -0.6,   -0.3,  999.0,  999.0,    0.0,   -0.2,   -0.1
2003/10/17 10:45,   -0.1,   -0.1,   -0.1,    0.0,   -0.1,   -0.0,    0.0,    0.0,   -0.1,   -0.1,   -0.0,   -0.0,    0.0,   -0.0,    0.0,    0.0,    0.0,    0.1,    0.1,    0.1,    0.0,   -0.1,    0.1,    0.1,    0.0,    0.0,   -0.0,    0.0,   -0.1,   -0.0,   -0.1,   -0.2,   -0.1,   -0.1,   -0.2,   -0.2,   -0.2,   -0.2,   -0.4,   -0.2,   -0.1,   -0.3,   -0.5,   -0.5,   -0.4,   -0.3,   -0.3,   -0.3,   -0.4,   -0.3,   -0.5,   -0.6,   -0.6,   -0.6,   -0.7,   -0.6,   -0.5,   -0.5,   -0.5,   -0.4,   -0.9,   -0.6,   -0.8,   -0.5,   -0.8,   -0.6,   -0.7,   -0.9,   -1.0,   -1.0,   -1.0,   -1.1,   -0.2,   -0.3,   -0.8,   -0.4,   -0.5,   -0.5,   -0.8,   -0.9,   -0.5,   -0.8,   -0.6,   -0.7,  999.0,  999.0,   -0.2,   -0.6,   -0.0,    0.0,   -0.1,   -0.6,   -0.8,   -0.8,   -0.5,   -0.7,   -0.6,   -0.3,   -0.2,   -0.3,   -0.4,   -0.8,   -0.2,   -0.6,   -0.2,   -0.3,   -0.3,   -0.2,  999.0,   -0.1,   -0.2,   -0.2,   -0.2,   -0.2,   -0.5,   -0.1,    0.0,   -0.1,   -0.1,   -0.3
2003/10/17 10:55,   -0.0,   -0.0,    0.0,   -0.0,   -0.1,   -0.1,   -0.1,   -0.1,   -0.1,   -0.1,   -0.1,   -0.1,   -0.1,   -0.1,   -0.2,   -0.1,   -0.1,   -0.0,   -0.0,   -0.0,   -0.1,   -0.0,   -0.0,   -0.1,   -0.1,   -0.1,   -0.1,   -0.1,   -0.1,   -0.1,   -0.1,   -0.1,   -0.1,   -0.1,   -0.2,   -0.0,   -0.1,   -0.1,   -0.1,   -0.1,   -0.1,   -0.1,   -0.3,   -0.1,   -0.1,   -0.1,   -0.3,   -0.4,   -0.4,   -0.0,   -0.2,   -0.4,   -0.3,   -0.2,   -0.4,   -0.1,   -0.3,   -0.3,    0.1,   -0.2,   -0.2,   -0.5,   -0.6,   -0.5,   -0.7,   -0.5,   -0.6,   -0.7,   -0.9,  999.0,   -0.8,   -0.7,   -0.5,   -0.3,   -0.4,   -0.7,  999.0,   -0.4,  999.0,   -0.8,  999.0,   -0.5,   -0.6,   -0.5,  999.0,  999.0,   -0.2,   -0.6,  999.0,    0.1,    0.2,  999.0,   -0.6,   -0.6,   -0.8,   -0.6,   -0.1,   -0.4,   -0.1,   -0.2,   -0.1,   -0.5,   -0.3,   -0.4,   -0.2,   -0.3,   -0.3,   -0.3,   -0.3,   -0.5,   -0.3,   -0.1,   -0.3,   -0.4,   -0.8,  999.0,  999.0,   -0.4,  999.0,  999.0
2003/10/17 11:05,   -0.2,   -0.1,   -0.2,   -0.2,   -0.1,   -0.1,   -0.1,   -0.1,   -0.1,   -0.0,    0.0,    0.1,    0.0,   -0.1,   -0.1,   -0.0,   -0.1,   -0.1,   -0.1,   -0.1,   -0.1,   -0.1,   -0.1,   -0.1,   -0.1,   -0.1,   -0.1,   -0.1,   -0.1,   -0.1,   -0.1,   -0.2,   -0.2,   -0.2,   -0.2,    0.0,   -0.1,   -0.2,   -0.3,   -0.1,   -0.2,   -0.4,   -0.5,   -0.2,   -0.2,   -0.2,   -0.4,   -0.4,   -0.6,   -0.2,   -0.4,   -0.4,   -0.6,   -0.4,   -0.5,   -0.8,   -0.6,   -0.6,   -0.4,   -0.2,   -0.2,   -0.2,   -0.5,   -0.7,   -0.3,   -0.3,   -0.6,   -0.8,   -0.5,   -0.7,   -0.6,   -0.4,   -0.4,    0.1,   -0.0,   -0.3,   -0.2,   -0.7,   -0.5,   -0.5,   -0.5,   -0.4,   -0.6,  999.0,  999.0,   -1.2,  999.0,    0.1,    0.1,   -0.0,    0.1,    0.2,   -0.2,   -0.3,   -0.3,   -0.4,   -0.3,    0.0,   -0.0,   -0.1,    0.3,   -0.3,    0.1,   -0.1,   -0.2,   -0.2,   -0.2,   -0.4,   -0.9,   -0.5,   -0.2,   -0.3,   -0.5,   -0.7,   -0.8,  999.0,  999.0,   -0.2,  999.0,  999.0
2003/10/17 11:15,   -0.2,   -0.4,   -0.2,   -0.1,   -0.1,   -0.1,   -0.1,   -0.1,   -0.1,   -0.0,   -0.0,   -0.0,   -0.0,   -0.1,   -0.1,   -0.1,   -0.1,   -0.1,   -0.1,   -0.1,   -0.2,   -0.1,   -0.2,   -0.2,   -0.1,   -0.2,   -0.1,   -0.1,   -0.2,   -0.2,   -0.2,   -0.2,   -0.1,   -0.1,   -0.1,   -0.2,   -0.2,   -0.4,   -0.2,   -0.2,   -0.4,   -0.3,   -0.4,   -0.3,   -0.2,   -0.3,   -0.4,   -0.5,   -0.4,   -0.3,   -0.5,   -0.4,   -0.9,   -0.5,   -0.5,   -0.3,   -0.5,   -0.5,   -0.3,   -0.5,   -0.2,   -0.5,   -0.6,   -0.4,   -0.3,   -0.5,   -0.3,   -0.5,   -0.4,   -0.6,   -0.6,   -0.1,   -0.5,   -0.3,   -0.5,   -0.7,   -0.5,  999.0,   -0.7,   -0.8,  999.0,   -0.6,   -0.7,  999.0,   -0.1,  999.0,  999.0,   -0.3,   -0.0,   -0.1,   -0.4,   -0.5,   -0.5,   -0.3,   -0.6,   -0.7,   -0.3,   -0.3,   -0.3,    0.0,   -0.0,   -0.3,   -0.0,   -0.1,   -0.4,   -0.1,   -0.1,   -0.1,   -0.3,   -0.1,   -0.0,   -0.0,   -0.1,   -0.2,   -0.1,    0.1,   -0.1,    0.3,  999.0,   -0.5
2003/10/17 11:25,   -0.3,   -0.2,   -0.2,   -0.1,   -0.1,   -0.1,    0.0,    0.2,    0.2,    0.2,    0.1,    0.2,    0.1,    0.0,    0.0,    0.0,    0.0,   -0.1,   -0.1,   -0.1,   -0.1,   -0.1,   -0.1,   -0.1,   -0.0,   -0.0,   -0.1,   -0.1,   -0.1,   -0.1,   -0.1,   -0.0,   -0.0,   -0.0,   -0.1,   -0.1,   -0.1,   -0.3,   -0.1,   -0.3,   -0.3,   -0.4,   -0.1,   -0.2,   -0.2,   -0.2,   -0.4,   -0.5,   -0.4,   -0.3,   -0.6,   -0.6,   -0.7,   -0.3,   -0.6,   -0.4,   -0.4,   -0.4,   -0.4,   -0.1,   -0.2,   -0.4,   -0.6,   -0.7,   -0.7,   -0.8,   -0.9,   -0.5,   -0.5,   -0.4,   -0.4,   -0.4,   -0.5,   -0.5,   -0.5,   -1.1,   -0.5,   -0.3,   -0.8,   -0.8,   -0.7,   -0.5,   -1.2,   -0.2,  999.0,  999.0,  999.0,  999.0,    0.1,   -0.0,  999.0,   -0.7,   -0.6,   -0.7,   -0.9,   -0.8,    0.1,   -0.4,   -0.0,   -0.2,   -0.1,   -0.7,   -0.5,   -0.8,   -0.3,   -0.4,   -0.6,   -0.5,   -0.5,   -0.6,   -0.3,   -0.3,   -0.2,   -0.2,  999.0,   -0.2,  999.0,   -0.1,  999.0,   -0.2
2003/10/17 11:35,   -0.4,   -0.3,   -0.2,   -0.1,   -0.1,   -0.2,   -0.1,   -0.1,   -0.2,   -0.1,   -0.0,   -0.0,   -0.1,   -0.1,   -0.2,   -0.1,   -0.1,   -0.1,   -0.1,   -0.0,   -0.1,   -0.1,   -0.1,   -0.1,   -0.1,   -0.1,   -0.1,   -0.1,   -0.1,   -0.2,   -0.1,   -0.1,   -0.2,   -0.2,   -0.2,   -0.1,   -0.2,   -0.2,   -0.2,   -0.1,   -0.2,   -0.2,   -0.2,   -0.1,   -0.0,   -0.2,   -0.2,   -0.4,   -0.1,   -0.2,   -0.5,   -0.5,   -0.5,   -0.6,   -0.4,   -0.2,   -0.4,   -0.4,   -0.6,   -0.2,    0.0,   -0.5,   -0.6,   -0.5,   -0.7,   -0.6,   -0.6,   -0.5,   -0.4,   -0.4,   -0.5,   -0.8,   -0.4,   -0.6,   -0.6,   -0.7,   -0.5,   -0.3,   -0.5,   -0.9,   -0.5,   -0.7,   -1.1,  999.0,  999.0,  999.0,   -0.7,   -0.3,   -0.2,   -0.2,    0.1,   -0.3,   -0.6,   -0.7,   -0.6,   -0.9,   -0.9,   -0.2,   -0.5,   -0.2,   -0.1,   -0.1,   -0.2,   -0.3,   -0.3,   -0.3,   -0.2,   -0.4,   -0.4,   -0.1,   -0.2,   -0.2,   -0.0,   -0.1,    0.0,    0.2,   -0.4,    0.1,   -0.4,   -0.2
2003/10/17 11:45,   -0.3,   -0.4,   -0.4,   -0.3,   -0.2,   -0.3,   -0.3,   -0.4,   -0.4,   -0.3,   -0.2,   -0.2,   -0.2,   -0.2,   -0.1,   -0.2,   -0.2,   -0.2,   -0.2,   -0.2,   -0.2,   -0.1,   -0.2,   -0.2,   -0.3,   -0.2,   -0.2,   -0.3,   -0.4,   -0.4,   -0.4,   -0.5,   -0.4,   -0.5,   -0.2,   -0.4,   -0.5,   -0.5,   -0.2,   -0.3,   -0.3,   -0.2,   -0.4,   -0.3,   -0.3,   -0.3,   -0.5,   -0.5,   -0.3,   -0.6,   -0.6,   -0.7,   -0.7,   -0.5,   -0.5,   -0.3,   -0.3,   -0.4,   -0.5,   -0.7,   -0.6,   -0.3,   -0.6,   -0.7,   -0.9,   -0.4,   -0.1,   -0.4,    0.0,   -0.5,   -0.4,   -0.8,  999.0,   -0.6,   -0.5,   -0.4,   -0.4,   -0.2,   -0.8,   -1.0,   -0.8,   -0.6,   -0.9,   -1.8,  999.0,  999.0,   -0.6,   -0.1,   -0.3,  999.0,  999.0,   -0.5,   -0.7,   -0.9,   -0.9,   -0.3,   -0.4,   -0.3,   -0.1,   -0.2,   -0.1,   -0.2,   -0.3,   -0.6,   -0.4,   -0.4,   -0.3,   -0.5,   -0.9,   -0.5,   -0.1,   -0.3,   -0.2,   -0.3,   -0.1,  999.0,   -0.3,   -0.4,   -0.4,   -0.2
2003/10/17 11:55,   -0.2,   -0.2,   -0.2,   -0.1,   -0.0,   -0.0,    0.1,    0.1,    0.1,    0.1,    0.0,    0.1,    0.1,    0.0,   -0.1,   -0.1,   -0.1,   -0.1,   -0.1,   -0.1,   -0.1,   -0.1,   -0.1,   -0.1,   -0.1,   -0.1,   -0.2,   -0.2,   -0.3,   -0.2,   -0.2,   -0.1,   -0.0,   -0.2,    0.0,   -0.2,   -0.2,   -0.3,   -0.2,   -0.2,   -0.3,   -0.2,   -0.1,   -0.3,   -0.4,   -0.4,   -0.2,   -0.3,   -0.2,   -0.4,   -0.7,   -0.7,   -0.6,   -0.2,   -0.5,   -0.1,   -0.2,   -0.3,   -0.4,   -0.1,   -0.1,   -0.3,   -0.3,   -0.0,   -0.6,   -0.2,   -0.3,   -0.5,    0.0,   -0.9,    0.0,   -0.6,   -0.5,   -0.4,   -0.5,   -0.6,   -0.1,   -0.2,   -0.4,   -0.6,   -1.0,   -0.4,   -0.5,  999.0,  999.0,  999.0,   -0.3,   -0.2,   -0.1,   -0.1,    0.1,   -0.1,   -0.3,   -0.8,   -0.6,   -0.3,   -0.1,   -0.2,   -0.3,    0.0,    0.2,    0.1,    0.0,   -0.1,    0.0,   -0.1,   -0.3,   -0.4,  999.0,   -0.2,   -0.1,   -0.2,   -0.1,   -0.2,   -0.4,   -0.2,   -0.3,   -0.4,   -0.3,   -0.2
2003/10/17 12:05,   -0.6,   -0.7,   -0.7,   -0.4,   -0.2,   -0.2,    0.0,   -0.1,   -0.0,   -0.1,    0.0,    0.0,    0.1,    0.0,   -0.0,   -0.0,   -0.0,   -0.0,   -0.0,   -0.1,   -0.2,   -0.1,   -0.2,   -0.1,   -0.1,   -0.1,   -0.2,   -0.2,   -0.2,   -0.2,   -0.1,   -0.0,   -0.1,   -0.2,   -0.3,    0.0,   -0.2,   -0.3,   -0.1,   -0.3,   -0.3,   -0.4,   -0.2,   -0.3,   -0.3,   -0.3,   -0.6,   -0.5,   -0.3,   -0.5,   -0.8,   -0.4,   -0.3,   -0.3,   -0.4,   -0.3,   -0.2,   -0.2,   -0.7,   -0.1,   -0.1,   -0.2,   -0.4,   -0.3,   -0.5,   -0.6,   -0.6,   -0.2,   -0.3,   -0.1,   -0.7,   -0.6,   -0.5,   -0.5,   -0.7,   -0.3,   -0.1,   -0.2,   -0.3,   -0.5,   -0.4,   -0.7,   -0.8,  999.0,   -5.1,  999.0,   -0.3,   -0.1,   -0.1,  999.0,   -0.1,   -0.6,   -0.6,   -0.7,   -0.7,   -0.6,   -0.4,   -0.4,   -0.3,   -0.1,   -0.1,   -0.3,   -0.5,   -0.5,   -0.2,   -0.3,   -0.4,   -0.6,   -0.5,   -0.3,   -0.2,   -0.4,   -0.7,   -0.3,   -0.3,  999.0,   -0.7,   -0.5,  999.0,   -0.1
2003/10/17 12:15,   -0.7,   -1.0,   -1.0,   -0.7,   -0.4,   -0.3,   -0.3,   -0.2,   -0.2,   -0.1,   -0.1,   -0.1,   -0.1,   -0.1,   -0.1,   -0.2,   -0.2,   -0.1,   -0.2,   -0.1,   -0.2,   -0.1,   -0.0,    0.0,    0.0,    0.0,    0.0,   -0.0,   -0.1,   -0.1,   -0.1,   -0.0,   -0.1,   -0.0,   -0.1,   -0.1,   -0.2,   -0.2,   -0.1,   -0.2,   -0.3,   -0.3,   -0.3,   -0.4,   -0.3,   -0.3,   -0.5,   -0.4,   -0.4,   -0.4,   -0.8,   -0.6,   -0.5,   -0.5,   -0.6,   -0.3,   -0.3,   -0.3,   -0.5,   -0.3,  999.0,   -0.4,   -0.4,   -0.3,   -0.3,   -0.6,   -0.3,   -0.5,   -0.6,   -0.4,   -0.6,   -0.7,   -0.4,   -0.7,   -0.7,   -0.2,  999.0,   -0.4,   -0.3,   -0.5,   -0.7,   -0.6,   -0.6,  999.0,  999.0,  999.0,    0.0,    0.1,    0.1,   -0.3,    0.4,    0.0,   -0.4,   -0.5,   -0.4,   -1.0,   -0.6,   -0.1,   -0.1,   -0.1,   -0.1,   -0.1,   -0.1,   -0.1,   -0.1,   -0.5,   -0.5,   -0.4,   -0.3,   -0.5,   -0.3,   -0.3,    0.0,   -0.2,   -0.3,   -0.6,   -0.3,   -0.6,   -0.4,   -0.5
2003/10/17 12:25,   -0.3,   -0.4,   -0.6,   -0.4,   -0.2,   -0.1,   -0.1,    0.1,    0.1,    0.1,    0.0,    0.2,   -0.0,   -0.0,   -0.1,   -0.1,   -0.1,   -0.0,   -0.0,   -0.1,   -0.0,   -0.1,   -0.1,   -0.1,   -0.1,   -0.1,   -0.1,   -0.1,   -0.1,   -0.1,   -0.0,   -0.1,   -0.2,   -0.1,   -0.2,   -0.2,   -0.2,   -0.2,   -0.1,   -0.2,   -0.4,   -0.4,   -0.3,   -0.3,   -0.4,   -0.4,   -0.4,   -0.3,   -0.5,   -0.6,   -0.6,   -0.6,   -0.6,   -0.3,   -0.8,   -0.6,   -0.3,   -0.4,   -0.2,   -0.5,   -0.9,   -0.6,   -0.3,   -0.3,   -0.4,   -0.7,   -0.6,   -0.4,   -0.9,   -0.6,   -0.8,   -0.6,   -0.4,   -0.7,   -0.7,   -0.2,    0.0,   -0.1,   -0.7,   -0.4,    0.0,   -0.6,   -0.3,  999.0,  999.0,   -0.4,   -0.1,   -0.2,   -0.1,    0.2,   -0.0,   -0.6,   -0.3,   -0.4,   -0.6,   -0.5,   -1.0,   -0.1,   -0.3,   -0.3,   -0.1,   -0.4,   -0.1,   -0.3,   -0.2,   -0.8,   -0.4,   -0.4,   -0.1,   -0.2,   -0.3,   -0.1,   -0.2,  999.0,   -0.2,   -0.3,   -0.1,    0.0,   -0.1,   -0.1
2003/10/17 12:35,   -0.4,   -0.7,   -0.6,   -0.4,   -0.3,   -0.2,   -0.2,   -0.2,   -0.2,   -0.0,   -0.1,   -0.0,    0.0,    0.0,   -0.0,   -0.1,   -0.0,   -0.0,   -0.1,   -0.1,   -0.1,   -0.1,   -0.1,   -0.1,   -0.1,   -0.0,   -0.1,   -0.1,   -0.1,   -0.1,   -0.0,   -0.1,   -0.1,   -0.2,   -0.2,   -0.2,   -0.3,   -0.4,   -0.2,   -0.2,   -0.2,   -0.3,   -0.3,   -0.3,   -0.3,   -0.3,   -0.4,   -0.4,   -0.6,   -0.5,   -0.7,   -0.5,   -0.5,   -0.4,   -0.6,   -0.5,   -0.5,   -0.6,   -0.3,  999.0,   -0.3,   -0.7,   -0.1,   -0.5,   -0.5,   -0.7,   -0.8,   -1.0,   -0.6,   -0.5,    2.1,   -1.8,   -0.6,   -0.9,   -0.7,   -0.8,   -0.5,   -0.3,   -0.6,   -2.7,   -0.6,   -0.6,   -0.3,  999.0,  999.0,  999.0,   -0.4,   -0.2,   -0.1,   -0.1,   -0.2,   -0.3,   -0.5,    1.0,   -0.8,   -0.8,   -0.2,   -0.4,   -0.5,   -0.3,   -0.2,   -0.3,   -0.2,   -0.3,   -0.4,    0.3,   -0.5,   -0.2,   -0.3,   -0.0,   -0.2,   -0.1,   -0.2,   -0.3,   -0.2,   -0.2,   -0.6,   -0.1,   -0.2,   -0.1
2003/10/17 12:45,   -0.2,   -0.7,   -0.6,   -0.1,   -0.1,   -0.2,   -0.2,   -0.2,   -0.4,   -0.2,   -0.2,   -0.2,   -0.1,   -0.2,   -0.2,   -0.2,   -0.2,   -0.2,   -0.2,   -0.1,  999.0,   -0.1,   -0.1,   -0.2,   -0.1,   -0.2,   -0.2,   -0.1,   -0.1,   -0.1,   -0.0,   -0.1,   -0.1,   -0.1,   -0.1,   -0.2,   -0.2,   -0.5,   -0.1,   -0.2,   -0.2,   -0.2,   -0.3,   -0.2,   -0.3,   -0.3,   -0.3,   -0.2,   -0.3,   -0.5,   -0.3,   -0.2,   -0.5,   -0.5,   -0.7,   -0.2,   -0.3,   -0.3,   -0.2,   -0.4,   -0.4,   -0.6,   -0.2,   -0.5,   -0.5,   -0.7,   -0.8,   -1.0,   -0.7,   -1.3,  999.0,   -0.9,   -0.9,   -0.8,   -0.2,   -0.6,   -0.5,   -0.5,   -0.8,   -1.2,   -1.6,  999.0,   -1.4,  999.0,  999.0,  999.0,  999.0,   -0.4,   -0.4,  999.0,  999.0,   -1.0,   -1.5,  999.0,   -1.0,   -0.6,  999.0,   -0.7,   -0.6,   -0.9,   -0.6,   -0.7,   -0.6,   -0.5,   -0.4,   -0.7,  999.0,  999.0,   -0.6,   -0.0,   -0.3,  999.0,   -0.3,   -0.3,   -0.4,   -0.2,  999.0,   -0.3,  999.0,   -0.1
2003/10/17 12:55,   -0.5,   -0.6,   -0.4,   -0.3,   -0.1,   -0.1,   -0.1,   -0.2,   -0.2,   -0.1,   -0.1,   -0.0,   -0.0,   -0.0,   -0.1,   -0.1,   -0.1,   -0.1,   -0.1,    0.0,    0.0,    0.0,   -0.0,    0.0,    0.0,    0.1,   -0.0,    0.0,   -0.0,    0.1,    0.1,    0.0,    0.0,   -0.0,   -0.0,   -0.1,   -0.1,   -0.3,   -0.0,   -0.1,   -0.2,   -0.1,   -0.3,   -0.4,   -0.3,   -0.5,   -0.5,   -0.3,   -0.6,   -0.4,   -0.6,   -0.6,   -0.5,   -0.4,   -0.6,   -0.5,   -0.5,  999.0,   -0.2,   -0.1,   -0.2,   -0.6,   -0.4,   -0.7,   -1.0,  999.0,   -0.8,   -0.8,   -1.0,  999.0,   -0.8,   -1.2,    0.2,   -0.7,   -1.0,   -0.5,   -2.0,   -0.5,   -0.8,  999.0,  999.0,   -1.4,   -1.1,  999.0,  999.0,  999.0,   -0.5,   -0.4,  999.0,    0.1,  999.0,   -0.2,  999.0,  999.0,   -0.4,  999.0,   -0.2,  999.0,   -0.4,   -0.5,   -0.6,   -0.6,   -0.4,   -0.2,   -0.5,   -0.7,  999.0,  999.0,   -0.7,   -0.5,   -0.5,   -0.4,   -0.4,   -0.3,   -0.2,  999.0,  999.0,   -0.2,   -0.3,   -0.4
2003/10/17 13:05,   -0.8,   -0.7,   -0.3,   -0.2,   -0.0,    0.1,    0.1,    0.1,    0.2,    0.0,    0.1,    0.2,    0.1,    0.2,    0.1,    0.1,    0.1,   -0.1,    0.0,    0.1,   -0.0,   -0.0,   -0.1,   -0.1,   -0.1,   -0.1,   -0.1,   -0.1,   -0.0,   -0.0,   -0.0,   -0.1,   -0.2,   -0.2,   -0.1,   -0.2,   -0.3,   -0.3,   -0.1,   -0.1,   -0.2,   -0.4,   -0.3,   -0.4,   -0.3,   -0.3,   -0.3,   -0.3,   -0.3,   -0.4,   -0.3,   -0.4,   -0.2,   -0.3,   -0.5,   -0.4,   -0.4,  999.0,   -0.4,   -0.3,   -0.3,   -0.5,   -0.5,   -0.6,   -0.6,   -0.8,   -0.8,   -0.6,   -1.1,   -0.8,  999.0,    0.3,   -0.5,   -0.7,   -0.1,   -0.4,   -0.4,   -0.2,   -0.4,   -0.5,  999.0,   -0.8,   -0.6,  999.0,  999.0,  999.0,  999.0,   -0.1,  999.0,    0.4,  999.0,   -0.0,   -0.3,  999.0,   -0.2,   -0.1,   -0.5,   -0.5,   -0.3,   -0.4,   -0.3,   -0.5,   -0.3,   -0.4,   -0.5,   -0.6,   -0.7,  999.0,   -0.6,   -0.6,   -0.5,   -0.5,   -0.6,   -0.4,  999.0,  999.0,   -0.2,   -0.4,  999.0,   -0.7
2003/10/17 13:15,   -1.0,   -0.9,   -0.7,   -0.5,   -0.1,   -0.1,   -0.0,    0.0,   -0.1,    0.0,   -0.1,    0.1,    0.1,    0.1,    0.1,   -0.0,   -0.1,   -0.1,   -0.1,   -0.1,   -0.1,   -0.1,   -0.1,   -0.1,    0.1,    0.0,    0.0,    0.0,   -0.1,    0.0,    0.0,   -0.0,   -0.1,   -0.1,   -0.0,   -0.1,   -0.3,   -0.2,    0.0,   -0.1,   -0.3,   -0.3,   -0.3,   -0.1,   -0.2,   -0.2,   -0.1,   -0.2,   -0.4,   -0.3,   -0.3,   -0.4,   -0.2,   -0.3,   -0.6,   -0.4,   -0.5,   -0.1,   -0.0,   -0.4,   -0.6,   -0.6,   -0.5,   -0.5,   -0.6,   -1.0,    0.1,   -0.8,   -0.9,   -0.6,   -0.1,   -0.0,   -0.5,   -0.4,   -0.1,   -0.5,   -0.1,   -0.3,   -0.5,   -0.8,   -0.7,   -0.7,   -0.5,  999.0,  999.0,  999.0,   -0.1,   -0.2,    0.0,    0.2,  999.0,   -0.2,   -0.3,   -0.6,   -0.2,   -0.4,   -0.5,   -0.3,   -0.2,   -0.2,   -0.3,   -0.5,   -0.6,   -0.3,   -0.8,   -0.8,   -1.3,   -0.3,   -0.2,   -0.2,   -0.1,   -0.1,    0.0,   -0.4,    0.1,  999.0,  999.0,   -0.3,   -0.2,  999.0
2003/10/17 13:25,   -0.8,   -0.8,   -0.3,   -0.1,   -0.2,   -0.3,   -0.2,   -0.2,   -0.2,   -0.2,   -0.3,   -0.3,   -0.2,   -0.4,   -0.3,   -0.2,   -0.2,    0.0,   -0.1,    1.8,   -0.1,    0.1,   -0.1,   -0.0,    1.0,   -0.1,   -0.7,    1.5,    0.1,    0.0,    0.0,   -0.0,    0.1,   -0.8,    0.7,    0.0,   -0.2,   -0.1,   -0.0,   -0.3,   -0.5,   -1.8,   -1.2,   -0.2,    0.7,   -0.4,   -0.2,   -0.3,   -0.3,   -0.6,   -0.5,   -0.3,   -0.4,   -0.4,   -0.5,   -0.4,   -0.3,  999.0,   -1.6,   -0.5,   -0.4,   -0.6,   -0.8,   -1.0,   -0.8,    0.7,    0.2,   -0.9,   -0.1,   -3.8,   -1.6,   -0.4,   -0.6,   -0.4,   -0.4,   -0.7,   -1.7,   -0.6,   -0.8,   -0.9,   -1.6,   -1.7,  999.0,  999.0,  999.0,  999.0,    0.1,   -0.4,   -0.5,   -0.2,  999.0,   -0.4,   -0.7,   -0.7,   -0.6,   -1.0,   -0.4,   -0.7,   -0.4,   -0.5,   -0.3,   -0.4,   -0.5,   -0.3,   -0.5,   -0.5,   -0.9,   -2.2,    1.0,   -0.7,   -0.2,   -0.3,   -0.1,   -0.3,   -0.1,  999.0,   -0.3,  999.0,   -0.4,  999.0
2003/10/17 13:35,   -0.4,   -0.1,   -0.0,    0.0,    0.2,    0.2,    0.1,    0.2,    0.0,   -0.1,   -0.1,   -0.1,   -0.2,   -0.1,   -0.1,   -0.1,   -0.1,    0.0,    0.1,    0.0,   -0.0,   -0.1,   -0.1,   -0.1,   -0.0,    0.0,    0.2,   -0.1,    0.0,    0.0,    0.1,    0.1,   -0.3,   -0.9,    0.1,   -0.1,   -0.1,    2.3,    0.5,   -0.3,    0.5,   -0.1,    1.1,   -1.6,   -0.1,   -0.2,   -0.1,   -0.2,   -0.4,   -0.6,   -0.6,   -0.5,   -0.4,   -0.4,   -0.6,   -0.5,   -2.4,   -0.3,   -0.3,   -0.1,   -0.4,   -0.4,   -0.8,    0.0,   -0.7,   -0.7,   -1.6,   -0.9,   -0.9,   -0.9,   -0.3,   -0.8,   -0.6,   -0.5,   -0.6,   -0.3,   -1.1,   -0.4,   -0.9,   -0.8,   -1.2,   -0.8,   -0.5,  999.0,  999.0,  999.0,   -0.3,   -0.1,   -0.3,  999.0,  999.0,   -0.1,   -0.7,  999.0,   -2.4,   -0.7,   -0.4,   -0.4,   -1.9,   -0.5,   -0.3,    0.7,    1.2,   -0.5,   -0.4,   -0.6,   -0.5,   -0.1,   -0.7,   -0.3,   -0.2,   -0.4,   -0.3,   -1.7,   -0.5,   -0.3,   -0.2,  999.0,   -0.3,  999.0
2003/10/17 13:45,   -0.5,   -0.3,   -0.1,   -0.1,   -0.1,   -0.0,   -0.1,   -0.1,    0.1,   -0.1,   -0.1,   -0.2,   -0.2,   -0.2,   -0.2,   -0.1,   -0.1,   -0.2,   -0.1,   -0.1,   -0.2,   -0.2,   -0.1,   -0.0,    0.0,    0.0,   -0.0,   -0.0,    0.1,    0.1,    0.1,    0.0,   -0.0,    0.1,    0.0,   -0.1,   -0.2,   -0.0,   -0.0,   -0.2,   -0.2,   -0.3,   -0.1,   -0.2,   -0.3,   -0.4,   -0.3,   -0.4,   -0.5,   -0.5,   -0.5,   -0.4,   -0.3,   -0.5,   -0.4,   -0.3,    0.0,    0.0,   -0.3,   -0.5,   -0.2,   -0.6,   -0.8,   -0.9,   -1.0,   -0.7,   -1.2,   -0.7,   -0.6,   -0.6,   -0.2,   -0.8,   -0.4,   -0.8,   -0.6,   -0.7,   -0.8,   -0.8,   -1.0,   -0.7,  999.0,   -0.8,  999.0,  999.0,  999.0,  999.0,    0.3,   -0.3,   -0.6,  999.0,   -0.4,   -0.7,   -0.6,   -0.9,   -0.9,   -1.1,   -0.6,   -0.6,   -0.4,   -0.5,   -0.4,   -0.6,   -0.4,   -0.4,   -0.4,   -0.4,   -0.2,   -0.0,   -0.1,   -0.3,    0.3,   -0.0,    0.1,    0.0,    0.2,    0.6,  999.0,   -0.2,   -0.3,   -0.2
2003/10/17 13:55,   -0.8,   -0.7,   -0.5,   -0.3,   -0.2,   -0.1,   -0.2,   -0.4,   -0.4,   -0.3,   -0.2,   -0.3,   -0.2,   -0.2,   -0.2,   -0.3,   -0.2,   -0.2,   -0.1,   -0.1,   -0.1,   -0.2,    0.0,   -0.0,    0.0,   -0.0,   -0.1,   -0.1,    0.0,    0.0,    0.1,    0.0,    0.1,    0.0,   -0.1,   -0.0,   -0.1,    0.0,   -0.1,   -0.3,   -0.2,   -0.2,   -0.1,   -0.2,   -0.3,   -0.3,   -0.4,   -0.5,   -0.4,   -0.5,   -0.4,   -0.4,   -0.3,   -0.5,   -0.5,   -0.2,   -0.4,   -0.3,   -0.3,   -0.7,   -0.5,   -0.3,   -0.8,   -0.7,   -0.7,   -1.3,   -1.5,   -1.1,   -0.8,   -0.8,   -0.8,   -1.1,   -0.9,   -1.0,   -0.8,   -0.7,   -0.8,   -1.0,   -1.0,   -1.0,  999.0,   -1.0,   -0.9,  999.0,  999.0,   -0.2,   -0.4,   -0.3,   -0.4,  999.0,   -0.7,   -0.5,   -1.0,   -0.9,   -0.9,   -0.8,   -0.6,   -0.1,   -0.6,   -0.5,   -0.6,   -0.6,   -0.6,   -0.6,   -0.6,   -0.8,   -0.7,   -0.5,   -0.4,   -0.6,    0.0,   -0.2,   -0.1,   -0.3,   -0.1,   -0.0,   -0.1,   -0.2,  999.0,   -0.5
2003/10/17 14:05,   -0.4,   -0.1,    0.0,    0.1,    0.3,    0.5,    0.2,    0.3,    0.2,    0.1,    0.1,    0.0,    0.0,   -0.1,   -0.1,   -0.1,   -0.1,   -0.1,   -0.0,   -0.1,   -0.0,   -0.0,    0.0,    0.0,   -0.1,   -0.1,   -0.2,   -0.2,   -0.1,   -0.2,   -0.2,   -0.2,   -0.2,   -0.1,   -0.2,   -0.3,   -0.3,   -0.2,   -0.3,   -0.4,   -0.5,   -0.6,   -0.4,   -0.4,   -0.6,   -0.6,   -0.6,   -0.6,   -0.6,   -0.5,   -0.6,   -0.5,   -0.6,   -0.5,   -0.5,   -0.3,   -0.9,   -0.3,   -0.4,   -0.9,   -0.5,   -0.4,   -0.5,   -0.7,   -0.6,   -0.6,  999.0,   -1.2,   -1.0,   -1.0,   -0.5,   -1.1,   -1.0,   -0.1,   -0.0,   -0.2,   -0.4,   -0.8,   -0.9,   -0.9,  999.0,   -1.0,   -1.5,  999.0,  999.0,  999.0,   -0.2,   -0.1,   -0.6,   -0.5,    0.0,  999.0,   -0.6,   -0.7,   -0.6,   -0.4,    0.3,   -0.1,   -0.4,   -0.3,   -0.2,   -0.3,    0.1,   -0.4,   -0.4,  999.0,   -0.4,   -0.1,   -0.2,   -0.5,   -0.0,   -0.1,   -0.1,   -0.3,   -0.3,   -0.2,   -0.5,   -0.3,   -0.4,   -0.3
2003/10/17 14:15,   -0.5,   -0.4,   -0.1,    0.1,    0.3,    0.6,    0.4,    0.5,    0.4,    0.2,    0.2,    0.2,    0.3,    0.2,    0.1,    0.0,   -0.1,   -0.1,   -0.0,    0.0,   -0.1,   -0.0,    0.1,    0.0,    0.0,    0.0,   -0.1,    0.0,    0.0,    0.0,    0.0,   -0.1,    0.0,   -0.0,   -0.2,   -0.2,   -0.2,   -0.2,   -0.3,   -0.3,   -0.2,   -0.2,   -0.2,   -0.4,   -0.5,   -0.3,   -0.5,   -0.4,   -0.4,   -0.5,   -0.4,   -0.7,   -0.7,   -0.5,   -0.3,   -0.3,   -0.6,   -0.6,  999.0,   -0.6,   -0.4,   -0.5,   -0.7,   -0.5,   -0.3,  999.0,  999.0,  999.0,   -0.9,   -0.8,   -0.9,   -0.6,   -0.5,  999.0,   -1.0,   -0.5,   -0.5,   -0.5,   -0.2,   -0.9,  999.0,   -0.8,  999.0,  999.0,  999.0,  999.0,   -0.4,    0.1,   -0.4,  999.0,   -0.3,   -0.1,   -0.4,   -0.4,   -0.5,   -0.7,   -0.7,   -0.2,   -0.2,   -0.1,   -0.1,   -0.2,   -0.1,   -0.3,   -0.3,   -1.0,   -0.1,    0.0,   -0.0,   -0.5,    0.1,    0.2,   -0.1,    0.1,    0.1,   -0.1,   -0.2,   -0.3,   -0.5,   -0.3
2003/10/17 14:25,   -0.6,   -0.3,   -0.1,   -0.1,   -0.1,   -0.1,   -0.1,   -0.3,   -0.2,   -0.1,   -0.0,   -0.0,    0.0,    0.1,    0.0,    0.1,   -0.1,   -0.0,   -0.0,   -0.0,   -0.1,   -0.1,   -0.1,   -0.1,   -0.1,   -0.1,   -0.2,   -0.0,   -0.0,   -0.1,   -0.0,   -0.2,   -0.1,   -0.1,   -0.1,   -0.1,   -0.2,   -0.1,   -0.1,   -0.4,   -0.3,   -0.0,   -0.1,   -0.3,   -0.2,   -0.2,   -0.5,   -0.4,   -0.4,   -0.3,   -0.3,   -0.4,   -0.4,   -0.2,   -0.2,   -0.2,  999.0,   -0.2,   -0.8,   -0.6,   -0.6,   -1.0,   -0.8,   -1.2,  999.0,  999.0,  999.0,   -0.0,   -0.7,   -0.8,   -1.0,   -0.6,   -0.5,   -0.6,   -0.6,   -0.4,   -0.5,   -0.7,   -0.6,  999.0,   -1.4,   -1.5,   -0.7,  999.0,  999.0,   -0.1,   -0.6,   -0.4,    0.1,  999.0,   -0.3,  999.0,   -0.4,   -0.6,   -0.9,   -0.6,   -0.8,   -0.3,   -0.3,   -0.3,   -0.2,   -0.3,   -0.4,   -0.2,   -0.3,   -0.4,   -0.4,    0.0,   -0.2,   -0.3,   -0.1,   -0.1,   -0.3,   -0.7,   -0.5,   -0.2,   -0.1,   -0.2,   -0.2,  999.0
2003/10/17 14:35,   -1.8,   -1.6,   -1.1,   -0.6,   -0.3,   -0.1,   -0.2,   -0.1,   -0.1,   -0.1,   -0.2,   -0.3,   -0.3,   -0.3,   -0.2,   -0.1,   -0.1,   -0.1,   -0.1,   -0.2,   -0.1,   -0.2,   -0.1,   -0.1,   -0.1,   -0.1,   -0.1,   -0.0,   -0.1,   -0.1,   -0.1,   -0.1,   -0.1,   -0.1,   -0.1,   -0.2,   -0.1,   -0.0,   -0.2,   -0.2,   -0.2,   -0.1,   -0.3,   -0.3,   -0.2,   -0.4,   -0.4,   -0.3,   -0.2,   -0.4,   -0.3,   -0.3,   -0.3,   -0.2,   -0.4,   -0.1,   -0.4,   -0.2,   -0.6,   -0.7,   -0.8,   -0.9,   -0.9,   -0.8,   -1.9,  999.0,  999.0,   -0.5,   -0.7,   -0.8,   -0.9,   -0.9,   -0.5,   -0.7,   -1.0,   -0.6,   -0.6,   -0.8,   -1.1,   -0.8,   -0.9,   -1.1,   -1.0,  999.0,  999.0,  999.0,   -0.4,   -0.1,    0.1,  999.0,    0.4,    0.1,   -0.5,   -0.4,   -0.9,   -0.6,   -0.7,   -0.2,   -0.2,   -0.3,   -0.5,   -0.3,   -0.5,   -0.4,   -0.4,   -0.4,   -0.4,   -0.2,   -0.1,   -0.4,    0.0,   -0.2,   -0.6,   -0.2,   -0.4,   -0.3,   -0.5,   -0.2,   -0.2,   -0.1
2003/10/17 14:45,   -0.7,   -0.8,   -0.4,   -0.3,    0.1,    0.2,    0.3,    0.1,    0.1,   -0.1,   -0.2,   -0.3,   -0.2,   -0.2,   -0.2,   -0.2,   -0.2,   -0.2,   -0.2,   -0.2,   -0.2,   -0.2,   -0.2,   -0.2,   -0.2,   -0.2,   -0.2,   -0.1,   -0.2,   -0.2,   -0.2,   -0.3,   -0.2,   -0.3,   -0.2,   -0.2,   -0.3,   -0.1,   -0.3,   -0.3,   -0.2,   -0.1,   -0.2,   -0.2,   -0.2,   -0.2,   -0.3,   -0.4,   -0.3,   -0.4,   -0.5,   -0.5,   -0.4,   -0.5,   -0.4,   -0.3,   -0.3,   -0.2,   -0.6,   -0.7,   -0.9,   -0.7,   -0.7,   -1.1,    0.0,  999.0,  999.0,   -0.8,   -0.6,   -1.2,   -1.0,   -0.6,   -1.4,   -0.4,   -0.5,   -0.5,   -0.8,   -1.1,   -0.7,   -1.3,   -1.2,   -0.6,   -0.6,  999.0,  999.0,  999.0,   -0.0,    0.2,   -0.7,   -0.4,  999.0,  999.0,   -0.7,   -0.6,   -1.1,   -0.8,   -0.8,   -1.0,   -0.2,   -0.0,   -0.4,   -0.3,    0.2,   -0.6,   -0.4,   -0.3,  999.0,   -0.1,   -0.3,   -0.3,   -0.0,   -0.4,   -0.5,   -0.4,   -0.2,   -0.3,   -0.3,   -0.4,   -0.2,   -0.3
2003/10/17 14:55,   -0.6,   -0.6,   -0.3,    0.0,    0.2,    0.4,    0.2,    0.1,    0.0,   -0.0,   -0.1,   -0.1,   -0.2,   -0.3,   -0.3,   -0.2,   -0.2,   -0.2,   -0.2,   -0.1,   -0.1,   -0.2,   -0.2,   -0.2,   -0.2,   -0.2,   -0.1,   -0.2,   -0.2,   -0.2,   -0.3,   -0.3,   -0.3,   -0.3,   -0.1,   -0.2,   -0.2,   -0.3,   -0.3,   -0.3,   -0.2,   -0.1,   -0.3,   -0.3,   -0.4,   -0.3,   -0.3,   -0.3,   -0.4,   -0.3,   -0.3,   -0.4,   -0.5,   -0.4,   -0.6,   -0.3,   -0.3,   -0.4,   -0.7,   -0.6,   -0.6,   -0.7,   -1.0,  999.0,  999.0,  999.0,   -0.9,   -0.9,   -0.6,   -0.8,   -0.9,   -0.2,   -0.7,   -0.1,  999.0,   -0.6,   -0.2,   -0.2,   -0.8,   -0.8,  999.0,   -0.7,   -0.9,  999.0,  999.0,  999.0,  999.0,   -0.1,   -0.3,   -0.2,  999.0,   -0.2,   -0.4,  999.0,  999.0,   -0.4,   -0.4,   -1.8,   -0.3,   -0.0,   -0.9,  999.0,   -0.5,   -0.4,   -0.5,   -0.6,   -1.4,   -0.1,   -0.8,   -0.3,   -0.1,   -0.2,   -0.5,   -0.4,   -0.5,   -0.1,  999.0,   -0.4,   -0.0,   -0.1
2003/10/17 15:05,   -1.0,   -1.0,   -0.7,   -0.4,   -0.2,    0.0,   -0.0,   -0.0,   -0.1,   -0.1,   -0.1,    0.0,    0.1,    0.1,    0.0,    0.0,   -0.0,    0.1,    0.0,   -0.0,    0.0,   -0.0,   -0.0,   -0.0,   -0.1,   -0.0,   -0.1,   -0.0,   -0.0,   -0.1,   -0.0,   -0.0,   -0.1,   -0.2,   -0.1,   -0.1,   -0.2,   -0.2,   -0.2,   -0.2,   -0.2,   -0.2,   -0.3,   -0.3,   -0.4,   -0.4,   -0.4,   -0.4,   -0.4,   -0.3,   -0.2,   -0.3,   -0.2,   -0.3,   -0.5,   -0.2,   -0.2,   -0.2,   -0.3,   -0.3,   -0.5,   -0.7,   -0.6,   -0.6,   -0.9,  999.0,   -0.5,   -0.8,   -0.7,   -1.1,   -1.1,   -0.5,   -0.5,   -0.2,   -0.2,   -0.5,   -0.3,   -0.7,   -0.7,   -0.7,   -1.0,   -0.6,   -0.8,  999.0,  999.0,  999.0,  999.0,   -0.0,   -0.2,   -0.0,  999.0,   -0.0,   -0.3,   -0.7,  999.0,   -0.7,   -0.6,   -0.7,   -0.6,   -0.5,   -0.5,   -0.5,   -0.6,   -0.5,   -0.4,   -0.5,   -0.7,   -0.1,   -0.4,   -0.2,    0.0,    0.1,   -0.2,   -0.1,   -0.1,    0.3,  999.0,  999.0,   -0.2,   -0.2
2003/10/17 15:15,   -1.5,   -1.6,   -1.0,   -0.7,   -0.3,   -0.0,    0.0,    0.2,    0.0,    0.1,    0.0,    0.1,    0.1,   -0.0,   -0.1,   -0.1,   -0.1,   -0.1,   -0.0,   -0.1,   -0.0,    0.0,   -0.0,    0.0,   -0.1,   -0.0,   -0.1,   -0.0,   -0.0,   -0.0,   -0.1,   -0.0,   -0.1,   -0.1,   -0.2,   -0.2,   -0.3,   -0.3,   -0.3,   -0.3,   -0.5,   -0.3,   -0.4,   -0.6,   -0.6,   -0.5,   -0.5,   -0.8,   -0.6,   -0.6,   -0.7,   -0.5,   -0.4,   -0.4,   -0.7,   -0.8,   -0.4,    0.2,   -0.3,   -0.3,   -0.6,   -0.7,   -0.9,   -0.4,   -1.1,   -0.9,   -0.8,   -0.9,   -1.1,   -1.0,   -0.7,   -0.1,  999.0,   -0.5,   -0.5,   -0.6,   -0.9,   -0.7,   -0.4,   -0.9,   -1.0,   -1.4,   -1.1,  999.0,  999.0,  999.0,   -1.0,   -0.2,   -0.2,   -0.1,   -0.1,   -0.3,   -0.7,   -0.7,  999.0,   -0.6,   -0.6,   -1.0,   -0.5,   -0.7,   -0.6,   -0.6,   -0.6,   -0.4,   -0.5,   -0.6,   -0.4,   -0.2,   -0.3,   -0.3,   -0.3,    0.0,   -0.4,   -0.1,   -0.6,   -0.5,   -0.5,  999.0,    0.6,   -0.2
2003/10/17 15:25,   -0.7,   -0.5,   -0.3,   -0.1,   -0.1,   -0.0,    0.3,    0.9,    0.7,    0.1,    0.2,    0.3,    0.3,    0.1,    0.2,  999.0,    0.0,    0.1,    0.1,    0.1,    0.1,    0.1,    0.0,    0.1,    0.0,    0.0,    0.1,    0.0,    0.0,   -0.1,   -0.1,   -0.1,   -0.0,   -0.1,   -0.0,   -0.1,   -0.1,   -0.2,   -0.3,   -0.3,   -0.3,   -0.3,   -0.4,   -0.6,   -0.4,   -0.6,   -0.7,   -0.6,   -0.6,   -0.7,   -0.5,   -0.5,   -0.6,   -0.3,   -0.5,   -0.6,   -0.5,   -0.6,   -0.4,   -0.6,   -0.8,   -0.8,   -1.1,   -1.0,   -1.8,   -0.5,   -1.0,   -1.0,   -1.0,   -1.5,   -0.6,   -0.3,  999.0,  999.0,   -1.4,   -0.7,   -0.7,   -0.9,   -1.0,   -1.0,  999.0,   -0.7,   -0.9,  999.0,  999.0,   -1.0,  999.0,   -0.1,   -0.2,   -1.4,   -0.3,   -0.7,   -0.7,   -0.7,   -1.2,   -0.5,   -0.5,   -1.0,   -0.6,   -0.7,   -0.6,   -0.4,   -0.4,   -0.3,   -0.3,   -0.5,   -0.5,   -0.3,    0.1,   -0.3,   -0.4,    0.2,   -0.3,   -0.3,   -0.2,   -0.1,   -0.4,   -0.7,   -0.1,  999.0
2003/10/17 15:35,   -0.7,   -0.8,   -0.7,   -0.3,   -0.2,    0.4,    0.3,    0.3,    0.5,    0.1,    0.1,    0.2,    0.2,    0.1,    0.1,  999.0,    0.1,    0.1,    0.2,    0.1,    0.3,    0.1,    0.0,    0.1,   -0.0,   -0.0,    0.0,    0.0,    0.0,   -0.0,   -0.0,   -0.0,    0.1,   -0.1,    0.0,   -0.0,   -0.1,   -0.2,   -0.1,   -0.0,   -0.1,   -0.2,   -0.2,   -0.2,   -0.2,   -0.5,   -0.3,   -0.4,   -0.3,   -0.4,   -0.3,   -0.3,   -0.3,   -0.3,   -0.4,   -0.8,   -0.4,   -0.2,   -0.6,   -0.7,   -0.6,   -0.6,   -0.7,   -0.9,   -0.7,   -1.1,   -1.0,   -0.3,   -1.0,   -1.4,   -1.2,  999.0,   -0.4,   -0.7,   -0.7,   -0.6,   -0.5,   -0.5,   -0.8,   -1.1,   -1.0,   -1.0,   -0.7,   -0.8,  999.0,   -0.8,   -0.2,   -0.4,   -0.5,   -0.5,   -0.5,   -0.9,   -0.7,   -0.9,   -1.9,   -0.7,   -0.3,   -0.4,   -0.3,   -0.4,   -0.3,   -0.5,   -0.6,   -0.4,   -0.4,   -0.6,   -0.8,   -0.3,   -0.3,   -0.5,   -0.3,   -0.2,   -0.4,   -0.3,   -0.4,   -0.6,   -0.6,   -1.1,   -0.7,   -0.1
2003/10/17 15:45,   -0.9,   -1.1,   -1.0,   -0.5,   -0.5,    0.0,    0.1,    0.2,    0.2,    0.1,    0.1,    0.1,    0.1,    0.1,    0.1,    0.1,    0.2,    0.1,    0.1,    0.1,    0.2,    0.1,    0.1,    0.1,    0.1,    0.1,    0.0,    0.1,    0.1,    0.1,   -0.0,   -0.1,   -0.1,   -0.0,    0.0,   -0.2,   -0.3,   -0.3,   -0.3,   -0.3,   -0.2,   -0.3,   -0.3,   -0.3,   -0.2,   -0.3,   -0.3,   -0.3,   -0.3,   -0.3,   -0.4,   -0.3,   -0.2,   -0.3,   -0.0,   -0.3,   -0.1,   -0.3,   -0.7,   -0.6,   -0.4,   -0.7,   -0.5,   -0.7,   -0.6,   -0.7,   -0.9,   -0.5,   -0.8,  999.0,   -0.5,  999.0,  999.0,   -0.7,   -1.4,   -0.4,   -0.3,   -0.7,   -0.8,   -0.7,  999.0,  999.0,   -0.4,   -3.5,  999.0,   -0.9,   -1.0,    0.2,   -0.4,   -0.1,  999.0,   -0.2,   -0.5,   -0.3,  999.0,   -0.2,  999.0,  999.0,   -0.3,   -0.3,    0.3,   -0.3,   -0.5,   -0.2,   -0.1,   -0.4,   -0.2,   -0.1,  999.0,  999.0,    0.0,    0.1,   -0.1,    0.0,    0.0,   -0.1,   -0.3,   -0.1,   -0.4,   -0.4
2003/10/17 15:55,   -0.4,   -0.5,   -0.3,   -0.2,   -0.1,    0.0,   -0.1,   -0.2,   -0.3,   -0.2,   -0.0,   -0.0,    0.1,    0.2,    0.0,    0.1,    0.1,    0.1,    0.1,   -0.1,    0.0,   -0.1,   -0.1,   -0.1,   -0.1,   -0.1,   -0.1,    0.0,    0.1,    0.1,    0.0,   -0.0,   -0.0,   -0.0,   -0.1,   -0.3,   -0.3,   -0.2,   -0.3,   -0.3,   -0.2,   -0.3,   -0.4,   -0.3,   -0.3,   -0.3,   -0.4,   -0.4,   -0.3,   -0.2,   -0.2,   -0.4,   -0.2,   -0.3,   -0.3,   -0.4,   -0.1,   -0.4,   -0.6,   -0.4,   -0.4,   -0.6,   -0.6,   -0.9,   -0.4,   -0.5,   -0.6,   -0.6,   -0.9,  999.0,  999.0,  999.0,    0.0,   -0.4,   -0.5,   -0.1,    0.1,   -0.2,   -0.3,   -0.4,   -0.0,  999.0,  999.0,   -0.2,  999.0,  999.0,   -0.1,   -0.0,   -0.1,    0.4,   -0.0,   -0.3,   -0.2,   -0.4,   -0.3,   -0.5,   -0.0,    0.1,   -0.2,   -0.4,   -0.5,   -0.6,   -0.8,   -0.5,   -0.3,   -0.3,   -0.5,   -0.3,   -0.1,   -0.2,   -0.6,   -0.2,   -0.3,   -0.5,   -0.4,   -0.2,   -0.3,   -0.3,   -0.2,   -0.2
2003/10/17 16:05,   -0.1,   -0.1,    0.1,    0.1,    0.1,    0.3,   -0.1,   -0.2,   -0.2,   -0.4,   -0.1,    0.1,    0.1,    0.1,   -0.2,    0.1,   -0.0,   -0.1,   -0.1,   -0.2,   -0.2,   -0.1,   -0.1,   -0.1,   -0.1,   -0.1,    0.0,    0.0,   -0.0,    0.0,    0.0,    0.0,    0.1,    0.1,   -0.1,   -0.1,   -0.3,   -0.2,   -0.3,   -0.3,   -0.4,   -0.4,   -0.2,   -0.5,   -0.1,   -0.5,   -0.6,   -0.6,   -0.3,   -0.3,   -0.8,   -0.5,   -0.2,   -0.3,   -0.5,   -0.5,   -0.1,   -0.6,   -1.0,   -0.4,   -0.3,   -0.7,   -0.8,   -0.8,   -0.6,   -0.4,  999.0,   -0.9,   -1.0,   -0.7,  999.0,  999.0,    0.2,  999.0,   -0.0,   -0.1,   -0.2,   -0.7,   -0.2,   -0.1,  999.0,  999.0,  999.0,  999.0,  999.0,  999.0,  999.0,  999.0,   -0.2,   -0.2,  999.0,    0.2,   -0.1,   -0.8,   -0.3,   -0.2,  999.0,   -0.0,  999.0,  999.0,   -0.5,  999.0,  999.0,   -0.3,   -0.3,  999.0,    0.0,   -0.0,    0.1,   -0.4,   -0.4,  999.0,   -0.5,   -0.4,  999.0,   -0.2,    0.0,  999.0,   -0.2,   -0.2
